M I D A S
Marine Information and Data Acquisition System
Tripno 1071 of the Zeeleeuw from 2006-04-18 08:40:58 to 2006-04-18 10:53:31
Back to CruiseResearch ActivitiesStationsMapUnderway DataData graphs

EquipmentUnitsComment
TimeDGPSUTC
LatitudeDGPSDM.mWGS84
LongitudeDGPSDM.mWGS84
TemperatureSBE03/SBE38deg celciusITS90
ConductivitySBE21S/mITS90
SalinitySBE21 Practical Salinity Units
ChlorophylAChelsea fluorimeterg/lCalibrated in Aceton
Missing or incorrect values are displayed as -999
Sea surface data collected by the RV Zeeleeuw from 2006-04-18 06:36:17 to 2006-04-18 11:06:56
                                                                                    Next 1000 lines
Time Latitude Longitude Temperature Conductivity Salinity ChlorophylA
2006-04-18 06:36:27 51°13.602 2°56.1 -999 5.146186 33.933323 4.848221
2006-04-18 06:36:31 51°13.602 2°56.1 -999 5.146186 33.933869 4.848221
2006-04-18 06:36:37 51°13.602 2°56.101 -999 5.146186 33.933869 4.848221
2006-04-18 06:36:41 51°13.602 2°56.101 -999 5.146082 33.933645 4.848221
2006-04-18 06:36:47 51°13.601 2°56.101 -999 5.145978 33.933421 4.848221
2006-04-18 06:36:51 51°13.601 2°56.101 -999 5.145978 33.933966 4.848221
2006-04-18 06:36:57 51°13.601 2°56.101 -999 5.145978 33.933966 4.848221
2006-04-18 06:37:02 51°13.601 2°56.1 -999 5.145874 33.933742 4.848221
2006-04-18 06:37:07 51°13.601 2°56.1 -999 5.145874 33.933742 4.848221
2006-04-18 06:37:11 51°13.601 2°56.1 -999 5.14577 33.933518 4.848221
2006-04-18 06:37:17 51°13.601 2°56.1 -999 5.14577 33.934064 4.848221
2006-04-18 06:37:22 51°13.601 2°56.1 -999 5.145666 33.933294 4.848221
2006-04-18 06:37:27 51°13.601 2°56.1 -999 5.145666 33.933294 4.848221
2006-04-18 06:37:32 51°13.6 2°56.1 -999 5.145666 33.93384 4.848221
2006-04-18 06:37:36 51°13.6 2°56.1 -999 5.145563 33.93307 4.848221
2006-04-18 06:37:42 51°13.6 2°56.099 -999 5.145563 33.933616 4.814512
2006-04-18 06:37:47 51°13.601 2°56.098 -999 5.145563 33.934162 4.848221
2006-04-18 06:37:51 51°13.601 2°56.097 -999 5.145459 33.933938 4.814512
2006-04-18 06:37:57 51°13.601 2°56.094 -999 5.145459 33.933938 4.814512
2006-04-18 06:38:02 51°13.601 2°56.092 -999 5.145459 33.933938 4.848221
2006-04-18 06:38:06 51°13.602 2°56.089 -999 5.145459 33.934484 4.814512
2006-04-18 06:38:12 51°13.602 2°56.084 -999 5.145355 33.93426 4.848221
2006-04-18 06:38:18 51°13.604 2°56.078 -999 5.145043 33.93195 4.848221
2006-04-18 06:38:22 51°13.605 2°56.074 -999 5.144731 33.930186 4.848221
2006-04-18 06:38:27 51°13.606 2°56.068 -999 5.144731 33.930186 4.848221
2006-04-18 06:38:32 51°13.608 2°56.061 -999 5.144731 33.930186 4.848221
2006-04-18 06:38:38 51°13.61 2°56.052 -999 5.144835 33.931502 4.848221
2006-04-18 06:38:42 51°13.611 2°56.046 -999 5.144939 33.932272 4.848221
2006-04-18 06:38:47 51°13.613 2°56.038 -999 5.144835 33.932048 4.848221
2006-04-18 06:38:52 51°13.615 2°56.03 -999 5.1439 33.925119 4.848221
2006-04-18 06:38:58 51°13.617 2°56.019 -999 5.1439 33.925119 4.848221
2006-04-18 06:39:03 51°13.619 2°56.01 -999 5.141821 33.910266 4.848221
2006-04-18 06:39:07 51°13.62 2°56.004 -999 5.141925 33.911036 4.848221
2006-04-18 06:39:12 51°13.622 2°55.995 -999 5.138288 33.884636 4.814512
2006-04-18 06:39:18 51°13.625 2°55.984 -999 5.141614 33.909817 4.848221
2006-04-18 06:39:22 51°13.627 2°55.977 -999 5.14442 33.931152 4.848221
2006-04-18 06:39:27 51°13.63 2°55.968 -999 5.14442 33.931152 4.848221
2006-04-18 06:39:32 51°13.632 2°55.958 -999 5.144212 33.929612 4.848221
2006-04-18 06:39:37 51°13.636 2°55.949 -999 5.144004 33.928618 4.848221
2006-04-18 06:39:43 51°13.64 2°55.938 -999 5.143796 33.927624 4.814512
2006-04-18 06:39:47 51°13.642 2°55.93 -999 5.143692 33.9274 4.848221
2006-04-18 06:39:52 51°13.646 2°55.921 -999 5.143588 33.92663 4.848221
2006-04-18 06:39:57 51°13.65 2°55.911 -999 5.143588 33.92663 4.848221
2006-04-18 06:40:02 51°13.654 2°55.902 -999 5.14338 33.925636 4.848221
2006-04-18 06:40:08 51°13.659 2°55.89 -999 5.143069 33.923326 4.814512
2006-04-18 06:40:12 51°13.662 2°55.882 -999 5.142653 33.920791 4.848221
2006-04-18 06:40:17 51°13.666 2°55.873 -999 5.142549 33.920567 4.848221
2006-04-18 06:40:23 51°13.671 2°55.861 -999 5.142133 33.917487 4.848221
2006-04-18 06:40:28 51°13.675 2°55.851 -999 5.142133 33.917487 4.848221
2006-04-18 06:40:32 51°13.678 2°55.844 -999 5.141718 33.914407 4.848221
2006-04-18 06:40:37 51°13.681 2°55.836 -999 5.141614 33.914183 4.848221
2006-04-18 06:40:43 51°13.686 2°55.826 -999 5.14151 33.913413 4.848221
2006-04-18 06:40:47 51°13.688 2°55.819 -999 5.141406 33.913188 4.814512
2006-04-18 06:40:52 51°13.692 2°55.811 -999 5.141302 33.91351 4.848221
2006-04-18 06:40:57 51°13.695 2°55.803 -999 5.141302 33.91351 4.848221
2006-04-18 06:41:03 51°13.698 2°55.794 -999 5.141198 33.91274 4.848221
2006-04-18 06:41:07 51°13.7 2°55.788 -999 5.141094 33.912516 4.848221
2006-04-18 06:41:12 51°13.703 2°55.78 -999 5.140886 33.911521 4.848221
2006-04-18 06:41:18 51°13.706 2°55.77 -999 5.140575 33.909211 4.848221
2006-04-18 06:41:22 51°13.708 2°55.764 -999 5.140367 33.908217 4.848221
2006-04-18 06:41:27 51°13.71 2°55.756 -999 5.140367 33.908217 4.848221
2006-04-18 06:41:32 51°13.712 2°55.749 -999 5.140367 33.908763 4.848221
2006-04-18 06:41:37 51°13.714 2°55.742 -999 5.140263 33.907992 4.848221
2006-04-18 06:41:43 51°13.716 2°55.735 -999 5.140159 33.907768 4.848221
2006-04-18 06:41:47 51°13.717 2°55.731 -999 5.140055 33.906452 4.848221
2006-04-18 06:41:52 51°13.718 2°55.726 -999 5.140055 33.906998 4.848221
2006-04-18 06:41:57 51°13.719 2°55.723 -999 5.140055 33.906998 4.848221
2006-04-18 06:42:02 51°13.719 2°55.722 -999 5.139743 33.905234 4.848221
2006-04-18 06:42:08 51°13.72 2°55.721 -999 5.139535 33.904239 4.814512
2006-04-18 06:42:12 51°13.721 2°55.721 -999 5.139535 33.904785 4.848221
2006-04-18 06:42:17 51°13.721 2°55.722 -999 5.139328 33.904336 4.848221
2006-04-18 06:42:22 51°13.723 2°55.724 -999 5.139328 33.905428 4.848221
2006-04-18 06:42:27 51°13.724 2°55.726 -999 5.139328 33.905428 4.848221
2006-04-18 06:42:32 51°13.726 2°55.729 -999 5.139224 33.905203 4.814512
2006-04-18 06:42:38 51°13.729 2°55.731 -999 5.13912 33.904979 4.814512
2006-04-18 06:42:42 51°13.73 2°55.733 -999 5.13912 33.906071 4.814512
2006-04-18 06:42:47 51°13.732 2°55.734 -999 5.138912 33.905076 4.848221
2006-04-18 06:42:52 51°13.733 2°55.734 -999 5.138912 33.905076 4.848221
2006-04-18 06:42:57 51°13.733 2°55.734 -999 5.138912 33.905076 4.848221
2006-04-18 06:43:02 51°13.733 2°55.733 -999 5.140263 33.915089 4.814512
2006-04-18 06:43:07 51°13.732 2°55.732 -999 5.140783 33.91894 4.814512
2006-04-18 06:43:12 51°13.731 2°55.73 -999 5.140679 33.91817 4.848221
2006-04-18 06:43:17 51°13.729 2°55.729 -999 5.140471 33.916083 4.848221
2006-04-18 06:43:23 51°13.726 2°55.727 -999 5.140263 33.914543 4.848221
2006-04-18 06:43:27 51°13.725 2°55.725 -999 5.140263 33.914543 4.848221
2006-04-18 06:43:32 51°13.723 2°55.724 -999 5.140159 33.913773 4.848221
2006-04-18 06:43:38 51°13.721 2°55.723 -999 5.140159 33.913773 4.848221
2006-04-18 06:43:43 51°13.721 2°55.722 -999 5.140159 33.914319 4.848221
2006-04-18 06:43:47 51°13.72 2°55.721 -999 5.140055 33.913548 4.848221
2006-04-18 06:43:52 51°13.72 2°55.721 -999 5.140055 33.914094 4.848221
2006-04-18 06:43:58 51°13.721 2°55.72 -999 5.140055 33.914094 4.848221
2006-04-18 06:44:03 51°13.722 2°55.72 -999 5.139951 33.91387 4.848221
2006-04-18 06:44:07 51°13.723 2°55.719 -999 5.139951 33.914416 4.814512
2006-04-18 06:44:12 51°13.725 2°55.718 -999 5.139847 33.914192 4.814512
2006-04-18 06:44:17 51°13.727 2°55.717 -999 5.139847 33.914738 4.848221
2006-04-18 06:44:22 51°13.73 2°55.715 -999 5.139743 33.91506 4.848221
2006-04-18 06:44:28 51°13.733 2°55.712 -999 5.139743 33.91506 4.848221
2006-04-18 06:44:32 51°13.736 2°55.71 -999 5.139743 33.915606 4.848221
2006-04-18 06:44:37 51°13.74 2°55.707 -999 5.139639 33.914836 4.848221
2006-04-18 06:44:43 51°13.744 2°55.703 -999 5.139639 33.914836 4.814512
2006-04-18 06:44:47 51°13.747 2°55.701 -999 5.139536 33.914065 4.814512
2006-04-18 06:44:52 51°13.752 2°55.697 -999 5.139536 33.914611 4.814512
2006-04-18 06:44:57 51°13.756 2°55.693 -999 5.139536 33.914611 4.814512
2006-04-18 06:45:02 51°13.761 2°55.689 -999 5.139432 33.913295 4.848221
2006-04-18 06:45:06 51°13.765 2°55.685 -999 5.139432 33.913841 4.814512
2006-04-18 06:45:12 51°13.771 2°55.68 -999 5.139432 33.914387 4.848221
2006-04-18 06:45:17 51°13.776 2°55.675 -999 5.139328 33.914163 4.848221
2006-04-18 06:45:22 51°13.781 2°55.67 -999 5.139224 33.913939 4.814512
2006-04-18 06:45:27 51°13.787 2°55.665 -999 5.139224 33.913939 4.814512
2006-04-18 06:45:32 51°13.793 2°55.66 -999 5.139224 33.914485 4.848221
2006-04-18 06:45:37 51°13.799 2°55.655 -999 5.13912 33.913714 4.848221
2006-04-18 06:45:42 51°13.805 2°55.65 -999 5.13912 33.91426 4.848221
2006-04-18 06:45:47 51°13.812 2°55.645 -999 5.13912 33.914807 4.848221
2006-04-18 06:45:52 51°13.818 2°55.64 -999 5.139016 33.914036 4.814512
2006-04-18 06:45:57 51°13.825 2°55.635 -999 5.139016 33.914036 4.814512
2006-04-18 06:46:02 51°13.831 2°55.63 -999 5.139016 33.914582 4.848221
2006-04-18 06:46:07 51°13.838 2°55.625 -999 5.138912 33.913812 4.814512
2006-04-18 06:46:13 51°13.846 2°55.619 -999 5.138912 33.914358 4.848221
2006-04-18 06:46:18 51°13.853 2°55.613 -999 5.138808 33.914134 4.848221
2006-04-18 06:46:23 51°13.86 2°55.608 -999 5.138808 33.91468 4.814512
2006-04-18 06:46:27 51°13.866 2°55.604 -999 5.138808 33.91468 4.814512
2006-04-18 06:46:32 51°13.873 2°55.599 -999 5.138704 33.914456 4.814512
2006-04-18 06:46:37 51°13.88 2°55.593 -999 5.1386 33.914232 4.848221
2006-04-18 06:46:42 51°13.887 2°55.588 -999 5.1386 33.914778 4.814512
2006-04-18 06:46:47 51°13.893 2°55.583 -999 5.1386 33.914778 4.814512
2006-04-18 06:46:52 51°13.9 2°55.577 -999 5.1386 33.914778 4.814512
2006-04-18 06:46:57 51°13.906 2°55.571 -999 5.1386 33.914778 4.814512
2006-04-18 06:47:02 51°13.912 2°55.566 -999 5.138497 33.914554 4.814512
2006-04-18 06:47:07 51°13.917 2°55.56 -999 5.138393 33.913783 4.814512
2006-04-18 06:47:12 51°13.923 2°55.554 -999 5.138393 33.914329 4.848221
2006-04-18 06:47:17 51°13.928 2°55.549 -999 5.138289 33.914105 4.848221
2006-04-18 06:47:22 51°13.933 2°55.543 -999 5.138289 33.914105 4.814512
2006-04-18 06:47:27 51°13.938 2°55.538 -999 5.138289 33.914105 4.814512
2006-04-18 06:47:31 51°13.942 2°55.534 -999 5.138185 33.913881 4.814512
2006-04-18 06:47:37 51°13.947 2°55.527 -999 5.138185 33.914427 4.814512
2006-04-18 06:47:42 51°13.952 2°55.522 -999 5.138185 33.914427 4.848221
2006-04-18 06:47:47 51°13.956 2°55.517 -999 5.138081 33.914203 4.814512
2006-04-18 06:47:51 51°13.96 2°55.512 -999 5.138081 33.914749 4.814512
2006-04-18 06:47:57 51°13.965 2°55.506 -999 5.138081 33.914749 4.814512
2006-04-18 06:48:02 51°13.969 2°55.501 -999 5.137977 33.914525 4.814512
2006-04-18 06:48:07 51°13.973 2°55.496 -999 5.137873 33.913755 4.814512
2006-04-18 06:48:12 51°13.976 2°55.491 -999 5.137873 33.914301 4.848221
2006-04-18 06:48:17 51°13.98 2°55.486 -999 5.137873 33.914301 4.814512
2006-04-18 06:48:22 51°13.983 2°55.482 -999 5.137769 33.914077 4.814512
2006-04-18 06:48:27 51°13.985 2°55.478 -999 5.137769 33.914077 4.814512
2006-04-18 06:48:32 51°13.988 2°55.474 -999 5.137769 33.914077 4.814512
2006-04-18 06:48:37 51°13.99 2°55.471 -999 5.137665 33.913306 4.814512
2006-04-18 06:48:42 51°13.992 2°55.469 -999 5.137561 33.913082 4.814512
2006-04-18 06:48:47 51°13.993 2°55.466 -999 5.137561 33.913628 4.848221
2006-04-18 06:48:51 51°13.995 2°55.465 -999 5.137561 33.913628 4.848221
2006-04-18 06:48:57 51°13.996 2°55.462 -999 5.137561 33.913628 4.848221
2006-04-18 06:49:02 51°13.998 2°55.46 -999 5.137457 33.913404 4.814512
2006-04-18 06:49:07 51°13.999 2°55.459 -999 5.137457 33.91395 4.814512
2006-04-18 06:49:12 51°14 2°55.458 -999 5.137354 33.913726 4.814512
2006-04-18 06:49:17 51°14 2°55.458 -999 5.137146 33.912185 4.848221
2006-04-18 06:49:22 51°14.001 2°55.458 -999 5.137146 33.912731 4.814512
2006-04-18 06:49:27 51°14.001 2°55.457 -999 5.137146 33.912731 4.814512
2006-04-18 06:49:32 51°14.002 2°55.457 -999 5.137146 33.912731 4.814512
2006-04-18 06:49:37 51°14.002 2°55.456 -999 5.137042 33.912507 4.814512
2006-04-18 06:49:42 51°14.003 2°55.456 -999 5.137042 33.912507 4.814512
2006-04-18 06:49:47 51°14.003 2°55.456 -999 5.136938 33.912283 4.848221
2006-04-18 06:49:52 51°14.004 2°55.455 -999 5.136938 33.912829 4.848221
2006-04-18 06:49:58 51°14.004 2°55.455 -999 5.136938 33.912829 4.848221
2006-04-18 06:50:02 51°14.005 2°55.455 -999 5.136938 33.912829 4.814512
2006-04-18 06:50:07 51°14.005 2°55.455 -999 5.136834 33.912058 4.814512
2006-04-18 06:50:11 51°14.005 2°55.455 -999 5.13673 33.912381 4.814512
2006-04-18 06:50:17 51°14.005 2°55.455 -999 5.13673 33.912927 4.814512
2006-04-18 06:50:22 51°14.005 2°55.455 -999 5.13673 33.913473 4.814512
2006-04-18 06:50:27 51°14.005 2°55.455 -999 5.13673 33.913473 4.814512
2006-04-18 06:50:32 51°14.005 2°55.455 -999 5.136626 33.912703 4.814512
2006-04-18 06:50:37 51°14.005 2°55.455 -999 5.136626 33.913249 4.814512
2006-04-18 06:50:42 51°14.005 2°55.454 -999 5.136522 33.913025 4.814512
2006-04-18 06:50:47 51°14.005 2°55.454 -999 5.136418 33.912801 4.814512
2006-04-18 06:50:52 51°14.005 2°55.454 -999 5.136418 33.912801 4.814512
2006-04-18 06:50:57 51°14.005 2°55.454 -999 5.136418 33.912801 4.814512
2006-04-18 06:51:02 51°14.005 2°55.453 -999 5.136418 33.912801 4.814512
2006-04-18 06:51:08 51°14.004 2°55.453 -999 5.136314 33.912576 4.814512
2006-04-18 06:51:13 51°14.004 2°55.452 -999 5.136314 33.913123 4.814512
2006-04-18 06:51:17 51°14.004 2°55.452 -999 5.136211 33.912352 4.814512
2006-04-18 06:51:22 51°14.004 2°55.452 -999 5.136107 33.912128 4.814512
2006-04-18 06:51:27 51°14.004 2°55.452 -999 5.136107 33.912128 4.814512
2006-04-18 06:51:32 51°14.004 2°55.451 -999 5.136107 33.912674 4.814512
2006-04-18 06:51:37 51°14.004 2°55.451 -999 5.136003 33.91245 4.814512
2006-04-18 06:51:42 51°14.004 2°55.451 -999 5.136003 33.91245 4.814512
2006-04-18 06:51:47 51°14.004 2°55.451 -999 5.136003 33.912997 4.814512
2006-04-18 06:51:52 51°14.004 2°55.451 -999 5.136003 33.913543 4.814512
2006-04-18 06:51:57 51°14.004 2°55.451 -999 5.136003 33.913543 4.814512
2006-04-18 06:52:02 51°14.004 2°55.451 -999 5.135899 33.912773 4.814512
2006-04-18 06:52:07 51°14.004 2°55.451 -999 5.135795 33.912548 4.814512
2006-04-18 06:52:12 51°14.004 2°55.451 -999 5.135795 33.912548 4.814512
2006-04-18 06:52:17 51°14.004 2°55.452 -999 5.135691 33.912324 4.814512
2006-04-18 06:52:22 51°14.004 2°55.451 -999 5.135691 33.912324 4.814512
2006-04-18 06:52:27 51°14.004 2°55.451 -999 5.135691 33.912324 4.814512
2006-04-18 06:52:32 51°14.004 2°55.451 -999 5.135691 33.912871 4.814512
2006-04-18 06:52:37 51°14.004 2°55.451 -999 5.135587 33.912646 4.814512
2006-04-18 06:52:42 51°14.004 2°55.451 -999 5.135587 33.91374 4.814512
2006-04-18 06:52:47 51°14.004 2°55.451 -999 5.135483 33.913515 4.814512
2006-04-18 06:52:52 51°14.004 2°55.451 -999 5.135483 33.913515 4.814512
2006-04-18 06:52:57 51°14.004 2°55.451 -999 5.135483 33.913515 4.814512
2006-04-18 06:53:02 51°14.004 2°55.451 -999 5.135379 33.913291 4.814512
2006-04-18 06:53:07 51°14.004 2°55.451 -999 5.135379 33.913291 4.814512
2006-04-18 06:53:11 51°14.004 2°55.451 -999 5.135275 33.91252 4.814512
2006-04-18 06:53:16 51°14.004 2°55.451 -999 5.135275 33.913067 4.814512
2006-04-18 06:53:22 51°14.004 2°55.451 -999 5.135171 33.911749 4.814512
2006-04-18 06:53:27 51°14.004 2°55.451 -999 5.135171 33.911749 4.814512
2006-04-18 06:53:32 51°14.004 2°55.451 -999 5.135171 33.912843 4.814512
2006-04-18 06:53:37 51°14.004 2°55.45 -999 5.135068 33.912618 4.814512
2006-04-18 06:53:42 51°14.004 2°55.45 -999 5.135068 33.912618 4.814512
2006-04-18 06:53:47 51°14.004 2°55.45 -999 5.134964 33.912394 4.814512
2006-04-18 06:53:52 51°14.004 2°55.45 -999 5.134964 33.912941 4.814512
2006-04-18 06:53:57 51°14.003 2°55.45 -999 5.134964 33.912941 4.814512
2006-04-18 06:54:02 51°14.004 2°55.45 -999 5.13486 33.912717 4.814512
2006-04-18 06:54:07 51°14.004 2°55.45 -999 5.13486 33.913263 4.814512
2006-04-18 06:54:12 51°14.004 2°55.45 -999 5.134756 33.913039 4.814512
2006-04-18 06:54:17 51°14.004 2°55.45 -999 5.134756 33.913586 4.814512
2006-04-18 06:54:21 51°14.004 2°55.451 -999 5.134652 33.912815 4.814512
2006-04-18 06:54:27 51°14.004 2°55.451 -999 5.134652 33.912815 4.814512
2006-04-18 06:54:31 51°14.004 2°55.451 -999 5.134652 33.913362 4.814512
2006-04-18 06:54:37 51°14.004 2°55.451 -999 5.134548 33.912591 4.814512
2006-04-18 06:54:42 51°14.004 2°55.451 -999 5.134548 33.913137 4.814512
2006-04-18 06:54:47 51°14.004 2°55.451 -999 5.134444 33.912366 4.814512
2006-04-18 06:54:52 51°14.004 2°55.45 -999 5.134444 33.912913 4.814512
2006-04-18 06:54:57 51°14.004 2°55.45 -999 5.134444 33.912913 4.814512
2006-04-18 06:55:02 51°14.004 2°55.45 -999 5.13434 33.912689 4.814512
2006-04-18 06:55:07 51°14.004 2°55.45 -999 5.13434 33.912689 4.814512
2006-04-18 06:55:11 51°14.004 2°55.45 -999 5.134236 33.912465 4.814512
2006-04-18 06:55:17 51°14.004 2°55.45 -999 5.134236 33.912465 4.814512
2006-04-18 06:55:21 51°14.004 2°55.45 -999 5.134132 33.912787 4.814512
2006-04-18 06:55:27 51°14.004 2°55.45 -999 5.134132 33.912787 4.814512
2006-04-18 06:55:31 51°14.004 2°55.45 -999 5.134132 33.912787 4.814512
2006-04-18 06:55:37 51°14.004 2°55.45 -999 5.134029 33.912563 4.814512
2006-04-18 06:55:42 51°14.004 2°55.45 -999 5.134029 33.91311 4.814512
2006-04-18 06:55:47 51°14.004 2°55.45 -999 5.133925 33.912886 4.814512
2006-04-18 06:55:51 51°14.004 2°55.45 -999 5.133925 33.912886 4.814512
2006-04-18 06:55:57 51°14.004 2°55.45 -999 5.133925 33.912886 4.814512
2006-04-18 06:56:02 51°14.004 2°55.45 -999 5.133821 33.912661 4.814512
2006-04-18 06:56:07 51°14.004 2°55.45 -999 5.133821 33.913208 4.814512
2006-04-18 06:56:11 51°14.004 2°55.45 -999 5.133717 33.912984 4.814512
2006-04-18 06:56:17 51°14.004 2°55.45 -999 5.133717 33.912984 4.814512
2006-04-18 06:56:22 51°14.004 2°55.45 -999 5.133717 33.912984 4.814512
2006-04-18 06:56:27 51°14.004 2°55.45 -999 5.133717 33.912984 4.814512
2006-04-18 06:56:32 51°14.004 2°55.45 -999 5.133613 33.913307 4.814512
2006-04-18 06:56:37 51°14.003 2°55.45 -999 5.133613 33.913307 4.814512
2006-04-18 06:56:42 51°14.003 2°55.45 -999 5.133509 33.913083 4.814512
2006-04-18 06:56:47 51°14.004 2°55.45 -999 5.133509 33.913083 4.814512
2006-04-18 06:56:52 51°14.004 2°55.451 -999 5.133405 33.912858 4.814512
2006-04-18 06:56:57 51°14.004 2°55.451 -999 5.133405 33.912858 4.814512
2006-04-18 06:57:02 51°14.004 2°55.451 -999 5.133405 33.913405 4.814512
2006-04-18 06:57:07 51°14.004 2°55.451 -999 5.133301 33.913181 4.814512
2006-04-18 06:57:12 51°14.004 2°55.451 -999 5.133301 33.913728 4.814512
2006-04-18 06:57:17 51°14.004 2°55.451 -999 5.133197 33.912957 4.814512
2006-04-18 06:57:22 51°14.004 2°55.451 -999 5.133197 33.913504 4.814512
2006-04-18 06:57:27 51°14.004 2°55.451 -999 5.133197 33.913504 4.814512
2006-04-18 06:57:32 51°14.004 2°55.451 -999 5.133093 33.912733 4.814512
2006-04-18 06:57:36 51°14.004 2°55.451 -999 5.133093 33.912733 4.814512
2006-04-18 06:57:42 51°14.005 2°55.451 -999 5.132989 33.912508 4.814512
2006-04-18 06:57:46 51°14.005 2°55.451 -999 5.13299 33.913055 4.814512
2006-04-18 06:57:52 51°14.004 2°55.451 -999 5.132886 33.912831 4.814512
2006-04-18 06:57:57 51°14.004 2°55.451 -999 5.132886 33.912831 4.814512
2006-04-18 06:58:02 51°14.004 2°55.451 -999 5.132886 33.913378 4.814512
2006-04-18 06:58:07 51°14.004 2°55.451 -999 5.132886 33.913378 4.814512
2006-04-18 06:58:12 51°14.004 2°55.451 -999 5.132782 33.913154 4.814512
2006-04-18 06:58:17 51°14.004 2°55.451 -999 5.132678 33.912383 4.814512
2006-04-18 06:58:22 51°14.004 2°55.451 -999 5.132678 33.91293 4.814512
2006-04-18 06:58:27 51°14.004 2°55.451 -999 5.132678 33.91293 4.814512
2006-04-18 06:58:32 51°14.004 2°55.451 -999 5.132574 33.912705 4.814512
2006-04-18 06:58:37 51°14.004 2°55.451 -999 5.132574 33.913253 4.814512
2006-04-18 06:58:42 51°14.004 2°55.451 -999 5.132574 33.913253 4.814512
2006-04-18 06:58:47 51°14.004 2°55.451 -999 5.13247 33.913028 4.814512
2006-04-18 06:58:52 51°14.004 2°55.451 -999 5.13247 33.913575 4.814512
2006-04-18 06:58:56 51°14.004 2°55.451 -999 5.13247 33.913575 4.814512
2006-04-18 06:59:02 51°14.004 2°55.451 -999 5.132366 33.912804 4.814512
2006-04-18 06:59:07 51°14.004 2°55.451 -999 5.132366 33.912804 4.814512
2006-04-18 06:59:12 51°14.004 2°55.451 -999 5.132262 33.91258 4.814512
2006-04-18 06:59:17 51°14.004 2°55.451 -999 5.132158 33.912356 4.814512
2006-04-18 06:59:22 51°14.004 2°55.451 -999 5.132158 33.912356 4.814512
2006-04-18 06:59:27 51°14.004 2°55.451 -999 5.132158 33.912356 4.814512
2006-04-18 06:59:32 51°14.004 2°55.451 -999 5.132158 33.912903 4.814512
2006-04-18 06:59:37 51°14.004 2°55.451 -999 5.132054 33.912678 4.814512
2006-04-18 06:59:42 51°14.004 2°55.451 -999 5.13195 33.911907 4.814512
2006-04-18 06:59:47 51°14.004 2°55.451 -999 5.13195 33.912454 4.814512
2006-04-18 06:59:52 51°14.004 2°55.451 -999 5.131847 33.91223 4.814512
2006-04-18 06:59:57 51°14.004 2°55.451 -999 5.131847 33.91223 4.814512
2006-04-18 07:00:02 51°14.004 2°55.45 -999 5.131847 33.91223 4.814512
2006-04-18 07:00:07 51°14.004 2°55.451 -999 5.131847 33.912777 4.814512
2006-04-18 07:00:11 51°14.004 2°55.45 -999 5.131743 33.912553 4.814512
2006-04-18 07:00:16 51°14.004 2°55.45 -999 5.131743 33.9131 4.814512
2006-04-18 07:00:22 51°14.004 2°55.45 -999 5.131639 33.912329 4.814512
2006-04-18 07:00:27 51°14.004 2°55.45 -999 5.131639 33.912329 4.814512
2006-04-18 07:00:32 51°14.004 2°55.45 -999 5.131639 33.912876 4.814512
2006-04-18 07:00:36 51°14.004 2°55.45 -999 5.131639 33.913423 4.814512
2006-04-18 07:00:42 51°14.004 2°55.45 -999 5.131535 33.913199 4.814512
2006-04-18 07:00:47 51°14.004 2°55.45 -999 5.131431 33.912427 4.814512
2006-04-18 07:00:52 51°14.004 2°55.45 -999 5.131431 33.912975 4.814512
2006-04-18 07:00:57 51°14.004 2°55.45 -999 5.131431 33.912975 4.814512
2006-04-18 07:01:02 51°14.004 2°55.45 -999 5.131327 33.91275 4.814512
2006-04-18 07:01:07 51°14.004 2°55.45 -999 5.131327 33.91275 4.814512
2006-04-18 07:01:12 51°14.004 2°55.45 -999 5.131327 33.913298 4.814512
2006-04-18 07:01:17 51°14.004 2°55.45 -999 5.131223 33.912526 4.814512
2006-04-18 07:01:22 51°14.004 2°55.45 -999 5.131119 33.912302 4.814512
2006-04-18 07:01:26 51°14.004 2°55.45 -999 5.131119 33.912302 4.814512
2006-04-18 07:01:32 51°14.004 2°55.45 -999 5.131119 33.912849 4.814512
2006-04-18 07:01:37 51°14.004 2°55.451 -999 5.131015 33.912078 4.814512
2006-04-18 07:01:42 51°14.004 2°55.451 -999 5.131015 33.912625 4.814512
2006-04-18 07:01:47 51°14.005 2°55.451 -999 5.130911 33.912401 4.814512
2006-04-18 07:01:51 51°14.005 2°55.451 -999 5.130911 33.912948 4.814512
2006-04-18 07:01:57 51°14.005 2°55.451 -999 5.130911 33.912948 4.814512
2006-04-18 07:02:02 51°14.004 2°55.451 -999 5.130807 33.912177 4.814512
2006-04-18 07:02:07 51°14.004 2°55.451 -999 5.130808 33.912724 4.814512
2006-04-18 07:02:11 51°14.004 2°55.451 -999 5.130704 33.911952 4.814512
2006-04-18 07:02:16 51°14.005 2°55.451 -999 5.130704 33.913047 4.814512
2006-04-18 07:02:22 51°14.005 2°55.451 -999 5.130704 33.913047 4.814512
2006-04-18 07:02:27 51°14.005 2°55.451 -999 5.130704 33.913047 4.814512
2006-04-18 07:02:32 51°14.004 2°55.45 -999 5.1306 33.912275 4.814512
2006-04-18 07:02:37 51°14.004 2°55.45 -999 5.130496 33.912051 4.814512
2006-04-18 07:02:42 51°14.004 2°55.45 -999 5.130496 33.912599 4.814512
2006-04-18 07:02:47 51°14.004 2°55.45 -999 5.130496 33.912599 4.814512
2006-04-18 07:02:51 51°14.004 2°55.45 -999 5.130392 33.912374 4.814512
2006-04-18 07:02:56 51°14.004 2°55.45 -999 5.130392 33.912374 4.814512
2006-04-18 07:03:02 51°14.004 2°55.45 -999 5.130392 33.912922 4.814512
2006-04-18 07:03:07 51°14.004 2°55.45 -999 5.130288 33.91215 4.814512
2006-04-18 07:03:12 51°14.004 2°55.45 -999 5.130288 33.912697 4.814512
2006-04-18 07:03:17 51°14.004 2°55.45 -999 5.130288 33.913245 4.814512
2006-04-18 07:03:22 51°14.004 2°55.45 -999 5.130184 33.912473 4.814512
2006-04-18 07:03:27 51°14.004 2°55.45 -999 5.130184 33.912473 4.814512
2006-04-18 07:03:32 51°14.004 2°55.45 -999 5.13008 33.912249 4.814512
2006-04-18 07:03:36 51°14.004 2°55.45 -999 5.13008 33.912796 4.814512
2006-04-18 07:03:42 51°14.004 2°55.45 -999 5.129976 33.912025 4.814512
2006-04-18 07:03:47 51°14.004 2°55.45 -999 5.129976 33.912572 4.814512
2006-04-18 07:03:51 51°14.004 2°55.45 -999 5.129976 33.912572 4.814512
2006-04-18 07:03:57 51°14.005 2°55.45 -999 5.129976 33.912572 4.814512
2006-04-18 07:04:02 51°14.005 2°55.451 -999 5.129872 33.912348 4.814512
2006-04-18 07:04:06 51°14.005 2°55.451 -999 5.129768 33.911576 4.814512
2006-04-18 07:04:12 51°14.006 2°55.451 -999 5.129768 33.912124 4.814512
2006-04-18 07:04:17 51°14.006 2°55.451 -999 5.129768 33.912671 4.814512
2006-04-18 07:04:22 51°14.007 2°55.45 -999 5.129665 33.912447 4.814512
2006-04-18 07:04:27 51°14.007 2°55.45 -999 5.129665 33.912447 4.814512
2006-04-18 07:04:32 51°14.007 2°55.45 -999 5.129665 33.912447 4.814512
2006-04-18 07:04:37 51°14.007 2°55.45 -999 5.129561 33.91277 4.814512
2006-04-18 07:04:42 51°14.007 2°55.45 -999 5.129457 33.911998 4.814512
2006-04-18 07:04:47 51°14.007 2°55.45 -999 5.129457 33.912546 4.814512
2006-04-18 07:04:52 51°14.007 2°55.45 -999 5.129353 33.911774 4.814512
2006-04-18 07:04:57 51°14.007 2°55.45 -999 5.129353 33.911774 4.814512
2006-04-18 07:05:02 51°14.007 2°55.45 -999 5.129353 33.912322 4.814512
2006-04-18 07:05:07 51°14.007 2°55.45 -999 5.129353 33.912869 4.814512
2006-04-18 07:05:12 51°14.007 2°55.45 -999 5.129249 33.912098 4.814512
2006-04-18 07:05:18 51°14.007 2°55.45 -999 5.129145 33.911873 4.814512
2006-04-18 07:05:23 51°14.007 2°55.45 -999 5.129145 33.911873 4.814512
2006-04-18 07:05:27 51°14.007 2°55.449 -999 5.129145 33.911873 4.814512
2006-04-18 07:05:32 51°14.007 2°55.45 -999 5.129145 33.912421 4.814512
2006-04-18 07:05:37 51°14.007 2°55.449 -999 5.129041 33.911649 4.814512
2006-04-18 07:05:42 51°14.007 2°55.45 -999 5.129041 33.912197 4.814512
2006-04-18 07:05:47 51°14.007 2°55.45 -999 5.128937 33.911972 4.814512
2006-04-18 07:05:52 51°14.007 2°55.45 -999 5.128937 33.91252 4.814512
2006-04-18 07:05:58 51°14.006 2°55.449 -999 5.128937 33.91252 4.814512
2006-04-18 07:06:02 51°14.006 2°55.449 -999 5.128833 33.912296 4.814512
2006-04-18 07:06:07 51°14.006 2°55.449 -999 5.128833 33.912843 4.814512
2006-04-18 07:06:12 51°14.007 2°55.45 -999 5.128833 33.912843 4.814512
2006-04-18 07:06:18 51°14.007 2°55.45 -999 5.128729 33.912619 4.814512
2006-04-18 07:06:23 51°14.007 2°55.45 -999 5.128626 33.911847 4.814512
2006-04-18 07:06:27 51°14.007 2°55.45 -999 5.128626 33.911847 4.814512
2006-04-18 07:06:32 51°14.007 2°55.45 -999 5.128626 33.912395 4.814512
2006-04-18 07:06:38 51°14.007 2°55.45 -999 5.128522 33.911623 4.814512
2006-04-18 07:06:43 51°14.007 2°55.45 -999 5.128522 33.912171 4.814512
2006-04-18 07:06:48 51°14.007 2°55.45 -999 5.128418 33.911946 4.814512
2006-04-18 07:06:52 51°14.007 2°55.45 -999 5.128418 33.911946 4.814512
2006-04-18 07:06:57 51°14.007 2°55.449 -999 5.128418 33.911946 4.814512
2006-04-18 07:07:03 51°14.006 2°55.449 -999 5.128314 33.911722 4.814512
2006-04-18 07:07:07 51°14.007 2°55.45 -999 5.128314 33.91227 4.780802
2006-04-18 07:07:12 51°14.007 2°55.45 -999 5.128314 33.91227 4.814512
2006-04-18 07:07:18 51°14.007 2°55.45 -999 5.12821 33.912046 4.814512
2006-04-18 07:07:23 51°14.007 2°55.45 -999 5.128106 33.911821 4.814512
2006-04-18 07:07:27 51°14.007 2°55.451 -999 5.128106 33.911821 4.814512
2006-04-18 07:07:32 51°14.007 2°55.451 -999 5.128106 33.911821 4.814512
2006-04-18 07:07:38 51°14.007 2°55.45 -999 5.128106 33.912369 4.814512
2006-04-18 07:07:42 51°14.007 2°55.45 -999 5.128002 33.912145 4.814512
2006-04-18 07:07:47 51°14.007 2°55.45 -999 5.128002 33.912693 4.814512
2006-04-18 07:07:52 51°14.007 2°55.45 -999 5.127898 33.911921 4.814512
2006-04-18 07:07:57 51°14.007 2°55.45 -999 5.127898 33.911921 4.814512
2006-04-18 07:08:02 51°14.007 2°55.45 -999 5.127898 33.912468 4.814512
2006-04-18 07:08:07 51°14.007 2°55.45 -999 5.127794 33.912244 4.814512
2006-04-18 07:08:12 51°14.007 2°55.45 -999 5.12769 33.911472 4.814512
2006-04-18 07:08:17 51°14.007 2°55.45 -999 5.12769 33.91202 4.814512
2006-04-18 07:08:22 51°14.007 2°55.45 -999 5.12769 33.912568 4.814512
2006-04-18 07:08:27 51°14.007 2°55.451 -999 5.12769 33.912568 4.814512
2006-04-18 07:08:32 51°14.007 2°55.45 -999 5.127586 33.911796 4.814512
2006-04-18 07:08:38 51°14.007 2°55.45 -999 5.127586 33.912344 4.814512
2006-04-18 07:08:43 51°14.007 2°55.45 -999 5.127483 33.912119 4.814512
2006-04-18 07:08:48 51°14.007 2°55.45 -999 5.127483 33.912119 4.814512
2006-04-18 07:08:52 51°14.007 2°55.45 -999 5.127379 33.911895 4.814512
2006-04-18 07:08:57 51°14.007 2°55.45 -999 5.127379 33.911895 4.814512
2006-04-18 07:09:03 51°14.007 2°55.45 -999 5.127379 33.911895 4.814512
2006-04-18 07:09:07 51°14.007 2°55.45 -999 5.127275 33.911671 4.814512
2006-04-18 07:09:13 51°14.007 2°55.45 -999 5.127275 33.912219 4.814512
2006-04-18 07:09:17 51°14.007 2°55.45 -999 5.127171 33.911994 4.814512
2006-04-18 07:09:22 51°14.007 2°55.45 -999 5.127171 33.911994 4.814512
2006-04-18 07:09:27 51°14.007 2°55.45 -999 5.127171 33.911994 4.814512
2006-04-18 07:09:33 51°14.007 2°55.45 -999 5.127067 33.91177 4.814512
2006-04-18 07:09:37 51°14.007 2°55.45 -999 5.127067 33.91177 4.814512
2006-04-18 07:09:43 51°14.007 2°55.45 -999 5.126963 33.911546 4.814512
2006-04-18 07:09:47 51°14.007 2°55.45 -999 5.126963 33.912094 4.814512
2006-04-18 07:09:53 51°14.007 2°55.45 -999 5.126963 33.912642 4.814512
2006-04-18 07:09:57 51°14.007 2°55.45 -999 5.126963 33.912642 4.814512
2006-04-18 07:10:03 51°14.007 2°55.45 -999 5.126859 33.912418 4.814512
2006-04-18 07:10:07 51°14.007 2°55.45 -999 5.126755 33.911645 4.814512
2006-04-18 07:10:13 51°14.007 2°55.45 -999 5.126755 33.912193 4.814512
2006-04-18 07:10:18 51°14.007 2°55.45 -999 5.126755 33.912193 4.814512
2006-04-18 07:10:23 51°14.007 2°55.45 -999 5.126651 33.911969 4.814512
2006-04-18 07:10:27 51°14.007 2°55.45 -999 5.126651 33.911969 4.814512
2006-04-18 07:10:32 51°14.007 2°55.45 -999 5.126651 33.912517 4.814512
2006-04-18 07:10:38 51°14.007 2°55.45 -999 5.126547 33.911745 4.780802
2006-04-18 07:10:43 51°14.007 2°55.45 -999 5.126547 33.912293 4.814512
2006-04-18 07:10:47 51°14.007 2°55.45 -999 5.126444 33.911521 4.814512
2006-04-18 07:10:53 51°14.007 2°55.45 -999 5.126444 33.912069 4.814512
2006-04-18 07:10:58 51°14.007 2°55.45 -999 5.126444 33.912069 4.814512
2006-04-18 07:11:03 51°14.007 2°55.45 -999 5.12634 33.911844 4.814512
2006-04-18 07:11:07 51°14.007 2°55.45 -999 5.12634 33.912392 4.814512
2006-04-18 07:11:12 51°14.007 2°55.45 -999 5.126236 33.91162 4.814512
2006-04-18 07:11:17 51°14.007 2°55.45 -999 5.126132 33.911396 4.814512
2006-04-18 07:11:22 51°14.007 2°55.45 -999 5.126132 33.911396 4.814512
2006-04-18 07:11:27 51°14.007 2°55.45 -999 5.126132 33.911396 4.814512
2006-04-18 07:11:32 51°14.007 2°55.45 -999 5.126132 33.911944 4.814512
2006-04-18 07:11:38 51°14.007 2°55.45 -999 5.126028 33.91172 4.814512
2006-04-18 07:11:43 51°14.007 2°55.449 -999 5.125924 33.911495 4.814512
2006-04-18 07:11:48 51°14.007 2°55.449 -999 5.125924 33.911495 4.814512
2006-04-18 07:11:52 51°14.007 2°55.449 -999 5.125924 33.912043 4.814512
2006-04-18 07:11:58 51°14.007 2°55.449 -999 5.125924 33.912043 4.814512
2006-04-18 07:12:03 51°14.007 2°55.449 -999 5.12582 33.911819 4.814512
2006-04-18 07:12:07 51°14.007 2°55.449 -999 5.12582 33.912367 4.814512
2006-04-18 07:12:12 51°14.007 2°55.449 -999 5.125716 33.911595 4.814512
2006-04-18 07:12:17 51°14.007 2°55.449 -999 5.125716 33.912143 4.814512
2006-04-18 07:12:23 51°14.007 2°55.449 -999 5.125612 33.911371 4.814512
2006-04-18 07:12:27 51°14.007 2°55.449 -999 5.125612 33.911371 4.814512
2006-04-18 07:12:33 51°14.007 2°55.449 -999 5.125612 33.911919 4.814512
2006-04-18 07:12:38 51°14.007 2°55.449 -999 5.125508 33.911695 4.814512
2006-04-18 07:12:43 51°14.007 2°55.449 -999 5.125508 33.911695 4.814512
2006-04-18 07:12:47 51°14.007 2°55.449 -999 5.125405 33.91147 4.814512
2006-04-18 07:12:53 51°14.007 2°55.449 -999 5.125405 33.91147 4.814512
2006-04-18 07:12:58 51°14.007 2°55.449 -999 5.125405 33.91147 4.814512
2006-04-18 07:13:03 51°14.006 2°55.449 -999 5.125301 33.911794 4.814512
2006-04-18 07:13:08 51°14.006 2°55.448 -999 5.125301 33.911794 4.814512
2006-04-18 07:13:12 51°14.006 2°55.448 -999 5.125197 33.91157 4.814512
2006-04-18 07:13:18 51°14.006 2°55.448 -999 5.125197 33.91157 4.814512
2006-04-18 07:13:22 51°14.006 2°55.448 -999 5.125197 33.912118 4.814512
2006-04-18 07:13:28 51°14.006 2°55.449 -999 5.125197 33.912118 4.814512
2006-04-18 07:13:32 51°14.006 2°55.449 -999 5.125093 33.911894 4.814512
2006-04-18 07:13:38 51°14.007 2°55.449 -999 5.124989 33.911122 4.814512
2006-04-18 07:13:43 51°14.007 2°55.449 -999 5.124989 33.91167 4.814512
2006-04-18 07:13:47 51°14.007 2°55.449 -999 5.124885 33.911446 4.814512
2006-04-18 07:13:53 51°14.007 2°55.449 -999 5.124885 33.911994 4.814512
2006-04-18 07:13:57 51°14.007 2°55.449 -999 5.124885 33.911994 4.814512
2006-04-18 07:14:02 51°14.007 2°55.449 -999 5.124781 33.911221 4.814512
2006-04-18 07:14:07 51°14.007 2°55.449 -999 5.124781 33.911769 4.814512
2006-04-18 07:14:12 51°14.007 2°55.449 -999 5.124781 33.911769 4.814512
2006-04-18 07:14:17 51°14.007 2°55.449 -999 5.124677 33.911545 4.814512
2006-04-18 07:14:22 51°14.007 2°55.449 -999 5.124677 33.912093 4.814512
2006-04-18 07:14:27 51°14.007 2°55.449 -999 5.124677 33.912093 4.814512
2006-04-18 07:14:32 51°14.007 2°55.449 -999 5.124573 33.911321 4.780802
2006-04-18 07:14:37 51°14.007 2°55.449 -999 5.124573 33.911869 4.814512
2006-04-18 07:14:42 51°14.007 2°55.449 -999 5.124469 33.911645 4.814512
2006-04-18 07:14:48 51°14.007 2°55.449 -999 5.124469 33.911645 4.780802
2006-04-18 07:14:52 51°14.007 2°55.449 -999 5.124365 33.911421 4.814512
2006-04-18 07:14:57 51°14.007 2°55.449 -999 5.124365 33.911421 4.814512
2006-04-18 07:15:02 51°14.007 2°55.449 -999 5.124365 33.911969 4.814512
2006-04-18 07:15:07 51°14.007 2°55.449 -999 5.124262 33.911745 4.780802
2006-04-18 07:15:12 51°14.007 2°55.449 -999 5.124262 33.911745 4.814512
2006-04-18 07:15:17 51°14.007 2°55.449 -999 5.124158 33.911521 4.780802
2006-04-18 07:15:22 51°14.007 2°55.449 -999 5.124158 33.911521 4.780802
2006-04-18 07:15:27 51°14.007 2°55.449 -999 5.124158 33.911521 4.780802
2006-04-18 07:15:32 51°14.007 2°55.449 -999 5.124054 33.911296 4.814512
2006-04-18 07:15:37 51°14.007 2°55.449 -999 5.124054 33.911296 4.814512
2006-04-18 07:15:42 51°14.007 2°55.45 -999 5.124054 33.912393 4.780802
2006-04-18 07:15:47 51°14.007 2°55.45 -999 5.12395 33.91162 4.814512
2006-04-18 07:15:52 51°14.007 2°55.449 -999 5.12395 33.912169 4.814512
2006-04-18 07:15:57 51°14.007 2°55.449 -999 5.12395 33.912169 4.814512
2006-04-18 07:16:02 51°14.007 2°55.449 -999 5.123846 33.911945 4.814512
2006-04-18 07:16:07 51°14.007 2°55.449 -999 5.123846 33.911945 4.814512
2006-04-18 07:16:11 51°14.006 2°55.449 -999 5.123742 33.91172 4.814512
2006-04-18 07:16:17 51°14.006 2°55.449 -999 5.123742 33.91172 4.780802
2006-04-18 07:16:22 51°14.006 2°55.449 -999 5.123638 33.911496 4.814512
2006-04-18 07:16:27 51°14.006 2°55.449 -999 5.123638 33.911496 4.814512
2006-04-18 07:16:32 51°14.006 2°55.449 -999 5.123638 33.911496 4.814512
2006-04-18 07:16:37 51°14.007 2°55.449 -999 5.123534 33.911272 4.814512
2006-04-18 07:16:42 51°14.007 2°55.45 -999 5.123534 33.91182 4.814512
2006-04-18 07:16:47 51°14.007 2°55.45 -999 5.12343 33.911596 4.814512
2006-04-18 07:16:52 51°14.007 2°55.45 -999 5.12343 33.911596 4.814512
2006-04-18 07:16:57 51°14.007 2°55.45 -999 5.12343 33.911596 4.814512
2006-04-18 07:17:02 51°14.007 2°55.45 -999 5.123326 33.911372 4.780802
2006-04-18 07:17:07 51°14.007 2°55.45 -999 5.123326 33.91192 4.780802
2006-04-18 07:17:11 51°14.007 2°55.45 -999 5.123223 33.911696 4.814512
2006-04-18 07:17:16 51°14.007 2°55.45 -999 5.123223 33.911696 4.780802
2006-04-18 07:17:22 51°14.007 2°55.45 -999 5.123223 33.912244 4.780802
2006-04-18 07:17:27 51°14.007 2°55.45 -999 5.123223 33.912244 4.780802
2006-04-18 07:17:32 51°14.007 2°55.45 -999 5.123119 33.91202 4.780802
2006-04-18 07:17:37 51°14.007 2°55.45 -999 5.123119 33.91202 4.814512
2006-04-18 07:17:42 51°14.007 2°55.45 -999 5.123015 33.911796 4.814512
2006-04-18 07:17:47 51°14.007 2°55.45 -999 5.123015 33.912344 4.780802
2006-04-18 07:17:51 51°14.007 2°55.449 -999 5.122911 33.91212 4.780802
2006-04-18 07:17:57 51°14.007 2°55.449 -999 5.122911 33.91212 4.780802
2006-04-18 07:18:02 51°14.007 2°55.449 -999 5.122911 33.91212 4.814512
2006-04-18 07:18:07 51°14.006 2°55.449 -999 5.122807 33.911896 4.814512
2006-04-18 07:18:12 51°14.006 2°55.449 -999 5.122807 33.911896 4.814512
2006-04-18 07:18:17 51°14.006 2°55.449 -999 5.122703 33.911672 4.814512
2006-04-18 07:18:22 51°14.006 2°55.449 -999 5.122703 33.91222 4.780802
2006-04-18 07:18:27 51°14.006 2°55.449 -999 5.122703 33.91222 4.780802
2006-04-18 07:18:32 51°14.006 2°55.449 -999 5.122599 33.911996 4.780802
2006-04-18 07:18:37 51°14.006 2°55.449 -999 5.122599 33.911996 4.780802
2006-04-18 07:18:42 51°14.006 2°55.449 -999 5.122495 33.911772 4.780802
2006-04-18 07:18:47 51°14.007 2°55.449 -999 5.122495 33.91232 4.814512
2006-04-18 07:18:52 51°14.007 2°55.45 -999 5.122495 33.91232 4.814512
2006-04-18 07:18:57 51°14.006 2°55.449 -999 5.122495 33.91232 4.814512
2006-04-18 07:19:02 51°14.006 2°55.449 -999 5.122391 33.912096 4.814512
2006-04-18 07:19:07 51°14.006 2°55.449 -999 5.122287 33.911872 4.814512
2006-04-18 07:19:13 51°14.006 2°55.449 -999 5.122287 33.911872 4.780802
2006-04-18 07:19:17 51°14.006 2°55.449 -999 5.122184 33.911648 4.814512
2006-04-18 07:19:22 51°14.007 2°55.449 -999 5.122184 33.911648 4.780802
2006-04-18 07:19:27 51°14.007 2°55.449 -999 5.122184 33.911648 4.780802
2006-04-18 07:19:32 51°14.007 2°55.449 -999 5.122184 33.912745 4.780802
2006-04-18 07:19:37 51°14.007 2°55.449 -999 5.12208 33.911972 4.780802
2006-04-18 07:19:42 51°14.007 2°55.449 -999 5.12208 33.911972 4.780802
2006-04-18 07:19:47 51°14.007 2°55.449 -999 5.121976 33.911199 4.814512
2006-04-18 07:19:52 51°14.007 2°55.449 -999 5.121976 33.912297 4.814512
2006-04-18 07:19:57 51°14.007 2°55.449 -999 5.121976 33.912297 4.814512
2006-04-18 07:20:03 51°14.007 2°55.449 -999 5.121872 33.912072 4.780802
2006-04-18 07:20:07 51°14.007 2°55.449 -999 5.121872 33.912072 4.814512
2006-04-18 07:20:11 51°14.007 2°55.449 -999 5.121768 33.911848 4.780802
2006-04-18 07:20:17 51°14.007 2°55.449 -999 5.121768 33.911848 4.814512
2006-04-18 07:20:22 51°14.007 2°55.449 -999 5.121664 33.912173 4.780802
2006-04-18 07:20:27 51°14.007 2°55.449 -999 5.121664 33.912173 4.780802
2006-04-18 07:20:32 51°14.007 2°55.449 -999 5.121664 33.912173 4.814512
2006-04-18 07:20:37 51°14.007 2°55.449 -999 5.121664 33.912721 4.780802
2006-04-18 07:20:42 51°14.007 2°55.449 -999 5.12156 33.911948 4.780802
2006-04-18 07:20:47 51°14.007 2°55.449 -999 5.121456 33.911724 4.780802
2006-04-18 07:20:51 51°14.007 2°55.449 -999 5.121456 33.912273 4.814512
2006-04-18 07:20:57 51°14.007 2°55.449 -999 5.121456 33.912273 4.814512
2006-04-18 07:21:02 51°14.006 2°55.449 -999 5.121456 33.912822 4.780802
2006-04-18 07:21:07 51°14.006 2°55.449 -999 5.121352 33.912049 4.780802
2006-04-18 07:21:12 51°14.006 2°55.449 -999 5.121352 33.912597 4.780802
2006-04-18 07:21:17 51°14.007 2°55.449 -999 5.121248 33.912373 4.780802
2006-04-18 07:21:22 51°14.006 2°55.449 -999 5.121248 33.912922 4.780802
2006-04-18 07:21:28 51°14.007 2°55.449 -999 5.121248 33.912922 4.780802
2006-04-18 07:21:32 51°14.006 2°55.449 -999 5.121145 33.912149 4.780802
2006-04-18 07:21:36 51°14.006 2°55.449 -999 5.121145 33.912698 4.780802
2006-04-18 07:21:42 51°14.007 2°55.449 -999 5.121041 33.911925 4.814512
2006-04-18 07:21:47 51°14.007 2°55.449 -999 5.121041 33.913022 4.780802
2006-04-18 07:21:52 51°14.006 2°55.449 -999 5.121041 33.913022 4.780802
2006-04-18 07:21:57 51°14.007 2°55.449 -999 5.121041 33.913022 4.780802
2006-04-18 07:22:02 51°14.007 2°55.449 -999 5.120937 33.912798 4.814512
2006-04-18 07:22:07 51°14.007 2°55.449 -999 5.120937 33.912798 4.814512
2006-04-18 07:22:12 51°14.006 2°55.449 -999 5.120833 33.912574 4.780802
2006-04-18 07:22:18 51°14.006 2°55.449 -999 5.120833 33.913123 4.780802
2006-04-18 07:22:23 51°14.007 2°55.449 -999 5.120729 33.91235 4.780802
2006-04-18 07:22:28 51°14.007 2°55.449 -999 5.120729 33.91235 4.780802
2006-04-18 07:22:32 51°14.007 2°55.449 -999 5.120729 33.912899 4.780802
2006-04-18 07:22:38 51°14.007 2°55.449 -999 5.120625 33.912674 4.780802
2006-04-18 07:22:42 51°14.007 2°55.449 -999 5.120625 33.913223 4.780802
2006-04-18 07:22:48 51°14.007 2°55.449 -999 5.120521 33.912999 4.780802
2006-04-18 07:22:52 51°14.007 2°55.449 -999 5.120521 33.912999 4.814512
2006-04-18 07:22:57 51°14.007 2°55.449 -999 5.120521 33.912999 4.814512
2006-04-18 07:23:02 51°14.007 2°55.449 -999 5.120417 33.912226 4.780802
2006-04-18 07:23:07 51°14.007 2°55.449 -999 5.120417 33.912775 4.780802
2006-04-18 07:23:12 51°14.007 2°55.449 -999 5.120313 33.912551 4.780802
2006-04-18 07:23:18 51°14.007 2°55.449 -999 5.120313 33.9131 4.814512
2006-04-18 07:23:23 51°14.007 2°55.449 -999 5.120313 33.9131 4.780802
2006-04-18 07:23:27 51°14.007 2°55.449 -999 5.120313 33.9131 4.780802
2006-04-18 07:23:33 51°14.007 2°55.449 -999 5.120209 33.912875 4.780802
2006-04-18 07:23:37 51°14.007 2°55.448 -999 5.120106 33.912651 4.780802
2006-04-18 07:23:42 51°14.007 2°55.448 -999 5.120106 33.9132 4.780802
2006-04-18 07:23:48 51°14.007 2°55.448 -999 5.120002 33.912427 4.780802
2006-04-18 07:23:52 51°14.007 2°55.448 -999 5.120002 33.912976 4.780802
2006-04-18 07:23:58 51°14.007 2°55.448 -999 5.120002 33.912976 4.780802
2006-04-18 07:24:02 51°14.007 2°55.448 -999 5.120002 33.913525 4.780802
2006-04-18 07:24:06 51°14.007 2°55.448 -999 5.119898 33.912752 4.780802
2006-04-18 07:24:12 51°14.007 2°55.448 -999 5.119898 33.913301 4.780802
2006-04-18 07:24:18 51°14.007 2°55.448 -999 5.119794 33.913077 4.814512
2006-04-18 07:24:23 51°14.007 2°55.448 -999 5.119794 33.913077 4.780802
2006-04-18 07:24:27 51°14.007 2°55.448 -999 5.119794 33.913077 4.780802
2006-04-18 07:24:32 51°14.007 2°55.448 -999 5.11969 33.912852 4.780802
2006-04-18 07:24:37 51°14.007 2°55.448 -999 5.11969 33.913401 4.814512
2006-04-18 07:24:42 51°14.007 2°55.448 -999 5.119586 33.912628 4.780802
2006-04-18 07:24:47 51°14.007 2°55.448 -999 5.119586 33.913177 4.780802
2006-04-18 07:24:52 51°14.007 2°55.448 -999 5.119586 33.913726 4.780802
2006-04-18 07:24:57 51°14.007 2°55.448 -999 5.119586 33.913726 4.780802
2006-04-18 07:25:02 51°14.007 2°55.448 -999 5.119482 33.913502 4.780802
2006-04-18 07:25:07 51°14.007 2°55.448 -999 5.119378 33.912729 4.780802
2006-04-18 07:25:12 51°14.007 2°55.448 -999 5.119378 33.913278 4.780802
2006-04-18 07:25:17 51°14.007 2°55.449 -999 5.119274 33.913054 4.780802
2006-04-18 07:25:21 51°14.007 2°55.449 -999 5.119274 33.913054 4.780802
2006-04-18 07:25:27 51°14.007 2°55.449 -999 5.119274 33.913054 4.780802
2006-04-18 07:25:32 51°14.007 2°55.449 -999 5.11917 33.91283 4.780802
2006-04-18 07:25:37 51°14.007 2°55.449 -999 5.11917 33.913379 4.780802
2006-04-18 07:25:42 51°14.007 2°55.449 -999 5.119067 33.912605 4.780802
2006-04-18 07:25:47 51°14.007 2°55.449 -999 5.119067 33.913154 4.780802
2006-04-18 07:25:52 51°14.007 2°55.449 -999 5.118963 33.91293 4.780802
2006-04-18 07:25:57 51°14.007 2°55.449 -999 5.118963 33.91293 4.780802
2006-04-18 07:26:02 51°14.007 2°55.449 -999 5.118963 33.91293 4.780802
2006-04-18 07:26:06 51°14.007 2°55.449 -999 5.118963 33.913479 4.780802
2006-04-18 07:26:12 51°14.007 2°55.449 -999 5.118859 33.913255 4.780802
2006-04-18 07:26:17 51°14.007 2°55.449 -999 5.118755 33.912482 4.780802
2006-04-18 07:26:22 51°14.007 2°55.449 -999 5.118755 33.913031 4.780802
2006-04-18 07:26:27 51°14.007 2°55.449 -999 5.118755 33.913031 4.780802
2006-04-18 07:26:32 51°14.007 2°55.449 -999 5.118651 33.912807 4.780802
2006-04-18 07:26:37 51°14.007 2°55.45 -999 5.118651 33.912807 4.780802
2006-04-18 07:26:42 51°14.007 2°55.45 -999 5.118651 33.913356 4.780802
2006-04-18 07:26:47 51°14.007 2°55.45 -999 5.118547 33.913132 4.780802
2006-04-18 07:26:52 51°14.006 2°55.45 -999 5.118443 33.912908 4.780802
2006-04-18 07:26:57 51°14.006 2°55.449 -999 5.118443 33.912908 4.780802
2006-04-18 07:27:02 51°14.006 2°55.449 -999 5.118443 33.913457 4.780802
2006-04-18 07:27:07 51°14.006 2°55.449 -999 5.118339 33.912683 4.780802
2006-04-18 07:27:12 51°14.006 2°55.449 -999 5.118339 33.913233 4.780802
2006-04-18 07:27:17 51°14.006 2°55.449 -999 5.118339 33.913782 4.780802
2006-04-18 07:27:22 51°14.006 2°55.449 -999 5.118235 33.913008 4.780802
2006-04-18 07:27:27 51°14.006 2°55.449 -999 5.118235 33.913008 4.780802
2006-04-18 07:27:32 51°14.006 2°55.449 -999 5.118131 33.912784 4.780802
2006-04-18 07:27:37 51°14.006 2°55.449 -999 5.118131 33.912784 4.780802
2006-04-18 07:27:43 51°14.006 2°55.449 -999 5.118027 33.91256 4.780802
2006-04-18 07:27:47 51°14.006 2°55.449 -999 5.118028 33.913109 4.780802
2006-04-18 07:27:52 51°14.006 2°55.449 -999 5.118028 33.913109 4.780802
2006-04-18 07:27:56 51°14.006 2°55.449 -999 5.118028 33.913109 4.780802
2006-04-18 07:28:02 51°14.006 2°55.449 -999 5.117924 33.913434 4.780802
2006-04-18 07:28:07 51°14.006 2°55.449 -999 5.117924 33.913434 4.780802
2006-04-18 07:28:12 51°14.006 2°55.45 -999 5.11782 33.912661 4.780802
2006-04-18 07:28:18 51°14.006 2°55.45 -999 5.11782 33.913759 4.780802
2006-04-18 07:28:23 51°14.006 2°55.449 -999 5.11782 33.913759 4.780802
2006-04-18 07:28:27 51°14.006 2°55.449 -999 5.11782 33.913759 4.780802
2006-04-18 07:28:33 51°14.006 2°55.45 -999 5.117716 33.913535 4.780802
2006-04-18 07:28:38 51°14.006 2°55.45 -999 5.117612 33.912762 4.780802
2006-04-18 07:28:42 51°14.006 2°55.45 -999 5.117612 33.913311 4.780802
2006-04-18 07:28:47 51°14.006 2°55.45 -999 5.117612 33.91386 4.780802
2006-04-18 07:28:52 51°14.006 2°55.45 -999 5.117508 33.913636 4.780802
2006-04-18 07:28:58 51°14.006 2°55.45 -999 5.117508 33.913636 4.780802
2006-04-18 07:29:03 51°14.006 2°55.45 -999 5.117404 33.912863 4.780802
2006-04-18 07:29:07 51°14.006 2°55.45 -999 5.117404 33.913412 4.780802
2006-04-18 07:29:12 51°14.006 2°55.45 -999 5.1173 33.913188 4.780802
2006-04-18 07:29:17 51°14.006 2°55.45 -999 5.1173 33.913188 4.780802
2006-04-18 07:29:23 51°14.006 2°55.45 -999 5.117196 33.912964 4.780802
2006-04-18 07:29:27 51°14.006 2°55.45 -999 5.117196 33.912964 4.780802
2006-04-18 07:29:32 51°14.006 2°55.45 -999 5.117196 33.912964 4.780802
2006-04-18 07:29:38 51°14.006 2°55.45 -999 5.117092 33.913289 4.780802
2006-04-18 07:29:43 51°14.007 2°55.45 -999 5.117092 33.913289 4.780802
2006-04-18 07:29:47 51°14.006 2°55.45 -999 5.116988 33.913065 4.780802
2006-04-18 07:29:53 51°14.006 2°55.45 -999 5.116988 33.913065 4.780802
2006-04-18 07:29:58 51°14.006 2°55.45 -999 5.116988 33.913065 4.780802
2006-04-18 07:30:03 51°14.006 2°55.45 -999 5.116885 33.912291 4.780802
2006-04-18 07:30:07 51°14.006 2°55.45 -999 5.116885 33.912841 4.780802
2006-04-18 07:30:13 51°14.006 2°55.451 -999 5.116781 33.912616 4.780802
2006-04-18 07:30:17 51°14.006 2°55.451 -999 5.116781 33.913166 4.780802
2006-04-18 07:30:22 51°14.006 2°55.451 -999 5.116781 33.913166 4.780802
2006-04-18 07:30:27 51°14.006 2°55.451 -999 5.116781 33.913166 4.780802
2006-04-18 07:30:33 51°14.006 2°55.451 -999 5.116677 33.912942 4.780802
2006-04-18 07:30:37 51°14.006 2°55.451 -999 5.116573 33.912718 4.780802
2006-04-18 07:30:42 51°14.006 2°55.451 -999 5.116573 33.912718 4.780802
2006-04-18 07:30:47 51°14.006 2°55.451 -999 5.116469 33.912493 4.780802
2006-04-18 07:30:53 51°14.006 2°55.45 -999 5.116469 33.913043 4.780802
2006-04-18 07:30:58 51°14.006 2°55.45 -999 5.116469 33.913043 4.780802
2006-04-18 07:31:03 51°14.006 2°55.45 -999 5.116469 33.913592 4.780802
2006-04-18 07:31:07 51°14.006 2°55.45 -999 5.116365 33.912819 4.780802
2006-04-18 07:31:12 51°14.006 2°55.45 -999 5.116261 33.912594 4.780802
2006-04-18 07:31:16 51°14.006 2°55.45 -999 5.116261 33.912594 4.780802
2006-04-18 07:31:22 51°14.006 2°55.451 -999 5.116261 33.913144 4.780802
2006-04-18 07:31:27 51°14.006 2°55.451 -999 5.116261 33.913144 4.780802
2006-04-18 07:31:32 51°14.006 2°55.451 -999 5.116157 33.91292 4.780802
2006-04-18 07:31:37 51°14.006 2°55.451 -999 5.116157 33.91292 4.780802
2006-04-18 07:31:42 51°14.006 2°55.451 -999 5.116053 33.912696 4.780802
2006-04-18 07:31:47 51°14.006 2°55.451 -999 5.116053 33.912696 4.780802
2006-04-18 07:31:52 51°14.006 2°55.451 -999 5.115949 33.913021 4.780802
2006-04-18 07:31:57 51°14.006 2°55.451 -999 5.115949 33.913021 4.780802
2006-04-18 07:32:02 51°14.006 2°55.451 -999 5.115949 33.913021 4.780802
2006-04-18 07:32:07 51°14.006 2°55.451 -999 5.115846 33.912797 4.780802
2006-04-18 07:32:12 51°14.006 2°55.451 -999 5.115846 33.912797 4.780802
2006-04-18 07:32:17 51°14.006 2°55.45 -999 5.115742 33.912573 4.780802
2006-04-18 07:32:22 51°14.006 2°55.451 -999 5.115742 33.913122 4.780802
2006-04-18 07:32:27 51°14.006 2°55.451 -999 5.115742 33.913122 4.780802
2006-04-18 07:32:31 51°14.006 2°55.451 -999 5.115638 33.912348 4.780802
2006-04-18 07:32:37 51°14.006 2°55.45 -999 5.115638 33.912898 4.780802
2006-04-18 07:32:42 51°14.006 2°55.45 -999 5.115534 33.912674 4.780802
2006-04-18 07:32:46 51°14.006 2°55.45 -999 5.115534 33.913224 4.780802
2006-04-18 07:32:52 51°14.006 2°55.45 -999 5.11543 33.91245 4.780802
2006-04-18 07:32:56 51°14.006 2°55.45 -999 5.11543 33.91245 4.780802
2006-04-18 07:33:02 51°14.006 2°55.45 -999 5.11543 33.912999 4.780802
2006-04-18 07:33:07 51°14.006 2°55.45 -999 5.115326 33.912775 4.780802
2006-04-18 07:33:12 51°14.006 2°55.45 -999 5.115326 33.912775 4.780802
2006-04-18 07:33:16 51°14.006 2°55.45 -999 5.115326 33.913325 4.780802
2006-04-18 07:33:22 51°14.006 2°55.45 -999 5.115222 33.913101 4.780802
2006-04-18 07:33:27 51°14.006 2°55.449 -999 5.115222 33.913101 4.780802
2006-04-18 07:33:32 51°14.006 2°55.449 -999 5.115118 33.912876 4.780802
2006-04-18 07:33:38 51°14.006 2°55.449 -999 5.115118 33.912876 4.780802
2006-04-18 07:33:43 51°14.006 2°55.45 -999 5.115014 33.912652 4.780802
2006-04-18 07:33:47 51°14.006 2°55.449 -999 5.115014 33.912652 4.780802
2006-04-18 07:33:52 51°14.006 2°55.449 -999 5.115014 33.913202 4.780802
2006-04-18 07:33:57 51°14.006 2°55.449 -999 5.115014 33.913202 4.780802
2006-04-18 07:34:02 51°14.006 2°55.449 -999 5.11491 33.912978 4.780802
2006-04-18 07:34:07 51°14.006 2°55.449 -999 5.11491 33.912978 4.780802
2006-04-18 07:34:12 51°14.006 2°55.449 -999 5.114807 33.912204 4.780802
2006-04-18 07:34:18 51°14.006 2°55.449 -999 5.114807 33.913303 4.780802
2006-04-18 07:34:22 51°14.006 2°55.449 -999 5.114703 33.912529 4.780802
2006-04-18 07:34:27 51°14.006 2°55.449 -999 5.114703 33.912529 4.780802
2006-04-18 07:34:32 51°14.006 2°55.449 -999 5.114599 33.911756 4.780802
2006-04-18 07:34:37 51°14.006 2°55.449 -999 5.114599 33.912855 4.780802
2006-04-18 07:34:42 51°14.006 2°55.449 -999 5.114599 33.912855 4.780802
2006-04-18 07:34:47 51°14.006 2°55.449 -999 5.114495 33.912081 4.780802
2006-04-18 07:34:52 51°14.007 2°55.45 -999 5.114495 33.912631 4.780802
2006-04-18 07:34:57 51°14.007 2°55.45 -999 5.114495 33.912631 4.780802
2006-04-18 07:35:02 51°14.007 2°55.45 -999 5.114391 33.912407 4.780802
2006-04-18 07:35:08 51°14.007 2°55.451 -999 5.114391 33.912956 4.780802
2006-04-18 07:35:12 51°14.007 2°55.451 -999 5.114287 33.912183 4.780802
2006-04-18 07:35:18 51°14.007 2°55.451 -999 5.114287 33.912732 4.780802
2006-04-18 07:35:23 51°14.007 2°55.45 -999 5.114183 33.912508 4.780802
2006-04-18 07:35:27 51°14.007 2°55.45 -999 5.114183 33.912508 4.780802
2006-04-18 07:35:32 51°14.007 2°55.45 -999 5.114183 33.912508 4.780802
2006-04-18 07:35:38 51°14.007 2°55.45 -999 5.114079 33.912284 4.780802
2006-04-18 07:35:42 51°14.007 2°55.45 -999 5.114079 33.912834 4.780802
2006-04-18 07:35:47 51°14.007 2°55.45 -999 5.113975 33.91206 4.780802
2006-04-18 07:35:52 51°14.007 2°55.45 -999 5.113975 33.91261 4.780802
2006-04-18 07:35:57 51°14.007 2°55.451 -999 5.113975 33.91261 4.780802
2006-04-18 07:36:02 51°14.007 2°55.45 -999 5.113975 33.913159 4.780802
2006-04-18 07:36:07 51°14.007 2°55.45 -999 5.113871 33.912935 4.780802
2006-04-18 07:36:12 51°14.007 2°55.45 -999 5.113768 33.912161 4.780802
2006-04-18 07:36:18 51°14.007 2°55.45 -999 5.113768 33.912711 4.780802
2006-04-18 07:36:23 51°14.007 2°55.449 -999 5.113664 33.911937 4.780802
2006-04-18 07:36:27 51°14.006 2°55.449 -999 5.113664 33.911937 4.780802
2006-04-18 07:36:32 51°14.006 2°55.449 -999 5.113664 33.912487 4.780802
2006-04-18 07:36:37 51°14.006 2°55.449 -999 5.113664 33.913037 4.780802
2006-04-18 07:36:43 51°14.006 2°55.449 -999 5.11356 33.912813 4.780802
2006-04-18 07:36:48 51°14.007 2°55.449 -999 5.11356 33.912813 4.780802
2006-04-18 07:36:52 51°14.007 2°55.449 -999 5.113456 33.912589 4.780802
2006-04-18 07:36:57 51°14.007 2°55.449 -999 5.113456 33.912589 4.780802
2006-04-18 07:37:02 51°14.006 2°55.448 -999 5.113456 33.912589 4.780802
2006-04-18 07:37:07 51°14.006 2°55.448 -999 5.113456 33.913138 4.780802
2006-04-18 07:37:12 51°14.006 2°55.448 -999 5.113352 33.912914 4.780802
2006-04-18 07:37:17 51°14.006 2°55.448 -999 5.113352 33.912914 4.780802
2006-04-18 07:37:22 51°14.006 2°55.448 -999 5.113248 33.91324 4.780802
2006-04-18 07:37:27 51°14.006 2°55.448 -999 5.113248 33.91324 4.780802
2006-04-18 07:37:32 51°14.006 2°55.448 -999 5.113144 33.912466 4.780802
2006-04-18 07:37:37 51°14.006 2°55.448 -999 5.113144 33.913016 4.780802
2006-04-18 07:37:42 51°14.006 2°55.448 -999 5.113144 33.913016 4.780802
2006-04-18 07:37:47 51°14.006 2°55.448 -999 5.11304 33.912792 4.780802
2006-04-18 07:37:52 51°14.006 2°55.448 -999 5.11304 33.912792 4.780802
2006-04-18 07:37:58 51°14.006 2°55.448 -999 5.11304 33.912792 4.780802
2006-04-18 07:38:03 51°14.006 2°55.448 -999 5.112936 33.913118 4.780802
2006-04-18 07:38:07 51°14.006 2°55.448 -999 5.112832 33.912343 4.780802
2006-04-18 07:38:12 51°14.006 2°55.448 -999 5.112832 33.912893 4.780802
2006-04-18 07:38:18 51°14.006 2°55.448 -999 5.112729 33.912669 4.780802
2006-04-18 07:38:22 51°14.006 2°55.448 -999 5.112729 33.912669 4.780802
2006-04-18 07:38:27 51°14.006 2°55.448 -999 5.112729 33.912669 4.780802
2006-04-18 07:38:32 51°14.006 2°55.448 -999 5.112729 33.913219 4.780802
2006-04-18 07:38:37 51°14.006 2°55.448 -999 5.112625 33.912445 4.780802
2006-04-18 07:38:42 51°14.006 2°55.448 -999 5.112521 33.912221 4.780802
2006-04-18 07:38:47 51°14.006 2°55.448 -999 5.112521 33.912771 4.780802
2006-04-18 07:38:52 51°14.006 2°55.448 -999 5.112417 33.912547 4.780802
2006-04-18 07:38:57 51°14.006 2°55.448 -999 5.112417 33.912547 4.780802
2006-04-18 07:39:03 51°14.006 2°55.448 -999 5.112417 33.912547 4.780802
2006-04-18 07:39:07 51°14.006 2°55.448 -999 5.112417 33.913097 4.780802
2006-04-18 07:39:11 51°14.006 2°55.448 -999 5.112313 33.912873 4.780802
2006-04-18 07:39:17 51°14.006 2°55.448 -999 5.112313 33.912873 4.780802
2006-04-18 07:39:22 51°14.006 2°55.448 -999 5.112209 33.912649 4.780802
2006-04-18 07:39:28 51°14.006 2°55.448 -999 5.112209 33.912649 4.780802
2006-04-18 07:39:32 51°14.006 2°55.448 -999 5.112209 33.913199 4.780802
2006-04-18 07:39:37 51°14.006 2°55.448 -999 5.112105 33.912424 4.780802
2006-04-18 07:39:43 51°14.006 2°55.448 -999 5.112105 33.912975 4.780802
2006-04-18 07:39:47 51°14.006 2°55.448 -999 5.112001 33.91275 4.780802
2006-04-18 07:39:53 51°14.006 2°55.448 -999 5.112001 33.9133 4.780802
2006-04-18 07:39:58 51°14.006 2°55.448 -999 5.112001 33.9133 4.780802
2006-04-18 07:40:02 51°14.006 2°55.449 -999 5.111897 33.912526 4.780802
2006-04-18 07:40:07 51°14.006 2°55.449 -999 5.111897 33.913076 4.780802
2006-04-18 07:40:12 51°14.006 2°55.449 -999 5.111897 33.913627 4.780802
2006-04-18 07:40:18 51°14.006 2°55.449 -999 5.111794 33.913402 4.780802
2006-04-18 07:40:23 51°14.007 2°55.449 -999 5.111794 33.913402 4.780802
2006-04-18 07:40:27 51°14.007 2°55.45 -999 5.111794 33.913402 4.780802
2006-04-18 07:40:31 51°14.006 2°55.449 -999 5.11169 33.913178 4.780802
2006-04-18 07:40:38 51°14.007 2°55.45 -999 5.111586 33.912404 4.780802
2006-04-18 07:40:42 51°14.006 2°55.45 -999 5.111586 33.912954 4.780802
2006-04-18 07:40:47 51°14.006 2°55.45 -999 5.111586 33.913504 4.780802
2006-04-18 07:40:52 51°14.006 2°55.45 -999 5.111482 33.91273 4.780802
2006-04-18 07:40:58 51°14.007 2°55.45 -999 5.111482 33.91273 4.780802
2006-04-18 07:41:03 51°14.007 2°55.45 -999 5.111378 33.912506 4.780802
2006-04-18 07:41:07 51°14.007 2°55.45 -999 5.111378 33.913056 4.780802
2006-04-18 07:41:12 51°14.007 2°55.45 -999 5.111378 33.913056 4.780802
2006-04-18 07:41:17 51°14.007 2°55.45 -999 5.111274 33.912832 4.780802
2006-04-18 07:41:22 51°14.007 2°55.45 -999 5.111274 33.913382 4.780802
2006-04-18 07:41:27 51°14.007 2°55.45 -999 5.111274 33.913382 4.780802
2006-04-18 07:41:32 51°14.007 2°55.45 -999 5.11117 33.912608 4.780802
2006-04-18 07:41:37 51°14.007 2°55.45 -999 5.111066 33.912383 4.780802
2006-04-18 07:41:42 51°14.006 2°55.45 -999 5.111066 33.912934 4.780802
2006-04-18 07:41:48 51°14.006 2°55.45 -999 5.111066 33.913484 4.780802
2006-04-18 07:41:52 51°14.006 2°55.45 -999 5.110962 33.91271 4.780802
2006-04-18 07:41:58 51°14.006 2°55.45 -999 5.110962 33.91271 4.780802
2006-04-18 07:42:03 51°14.006 2°55.45 -999 5.110962 33.91326 4.780802
2006-04-18 07:42:07 51°14.006 2°55.45 -999 5.110962 33.91381 4.780802
2006-04-18 07:42:12 51°14.006 2°55.449 -999 5.110858 33.913036 4.780802
2006-04-18 07:42:18 51°14.006 2°55.449 -999 5.110858 33.913586 4.780802
2006-04-18 07:42:22 51°14.006 2°55.449 -999 5.110754 33.912812 4.780802
2006-04-18 07:42:28 51°14.006 2°55.449 -999 5.110754 33.912812 4.780802
2006-04-18 07:42:33 51°14.006 2°55.449 -999 5.110755 33.913912 4.780802
2006-04-18 07:42:38 51°14.006 2°55.449 -999 5.110651 33.913138 4.780802
2006-04-18 07:42:43 51°14.006 2°55.449 -999 5.110651 33.913688 4.780802
2006-04-18 07:42:47 51°14.006 2°55.45 -999 5.110547 33.912914 4.780802
2006-04-18 07:42:52 51°14.006 2°55.45 -999 5.110443 33.912689 4.780802
2006-04-18 07:42:58 51°14.006 2°55.449 -999 5.110443 33.912689 4.780802
2006-04-18 07:43:02 51°14.006 2°55.449 -999 5.110443 33.91324 4.780802
2006-04-18 07:43:07 51°14.006 2°55.449 -999 5.110339 33.913016 4.780802
2006-04-18 07:43:12 51°14.006 2°55.449 -999 5.110339 33.913016 4.780802
2006-04-18 07:43:17 51°14.006 2°55.449 -999 5.110235 33.912792 4.780802
2006-04-18 07:43:23 51°14.006 2°55.449 -999 5.110235 33.913342 4.780802
2006-04-18 07:43:28 51°14.006 2°55.449 -999 5.110235 33.913342 4.780802
2006-04-18 07:43:32 51°14.006 2°55.449 -999 5.110235 33.913892 4.780802
2006-04-18 07:43:37 51°14.006 2°55.449 -999 5.110131 33.913118 4.780802
2006-04-18 07:43:43 51°14.006 2°55.449 -999 5.110131 33.913668 4.780802
2006-04-18 07:43:48 51°14.006 2°55.449 -999 5.110027 33.912894 4.780802
2006-04-18 07:43:52 51°14.006 2°55.449 -999 5.109923 33.91267 4.780802
2006-04-18 07:43:57 51°14.006 2°55.449 -999 5.109923 33.91267 4.780802
2006-04-18 07:44:02 51°14.006 2°55.449 -999 5.109923 33.91322 4.780802
2006-04-18 07:44:08 51°14.006 2°55.449 -999 5.109819 33.912445 4.780802
2006-04-18 07:44:13 51°14.006 2°55.449 -999 5.109819 33.912996 4.780802
2006-04-18 07:44:18 51°14.005 2°55.449 -999 5.109715 33.912221 4.780802
2006-04-18 07:44:23 51°14.005 2°55.448 -999 5.109716 33.913322 4.780802
2006-04-18 07:44:27 51°14.005 2°55.448 -999 5.109716 33.913322 4.780802
2006-04-18 07:44:33 51°14.005 2°55.448 -999 5.109716 33.913322 4.780802
2006-04-18 07:44:38 51°14.005 2°55.447 -999 5.109612 33.913098 4.780802
2006-04-18 07:44:42 51°14.005 2°55.448 -999 5.109508 33.912874 4.780802
2006-04-18 07:44:47 51°14.005 2°55.448 -999 5.109508 33.912874 4.780802
2006-04-18 07:44:53 51°14.005 2°55.448 -999 5.109508 33.912874 4.780802
2006-04-18 07:44:58 51°14.005 2°55.448 -999 5.109508 33.912874 4.780802
2006-04-18 07:45:03 51°14.005 2°55.448 -999 5.109404 33.91265 4.780802
2006-04-18 07:45:08 51°14.005 2°55.449 -999 5.109404 33.9132 4.780802
2006-04-18 07:45:12 51°14.005 2°55.449 -999 5.1093 33.912976 4.780802
2006-04-18 07:45:17 51°14.005 2°55.449 -999 5.1093 33.912976 4.780802
2006-04-18 07:45:22 51°14.005 2°55.449 -999 5.109196 33.912752 4.780802
2006-04-18 07:45:27 51°14.005 2°55.449 -999 5.109196 33.912752 4.780802
2006-04-18 07:45:33 51°14.005 2°55.449 -999 5.109092 33.912528 4.780802
2006-04-18 07:45:37 51°14.005 2°55.449 -999 5.109092 33.913078 4.780802
2006-04-18 07:45:43 51°14.006 2°55.449 -999 5.108988 33.912854 4.780802
2006-04-18 07:45:48 51°14.006 2°55.449 -999 5.108988 33.912854 4.780802
2006-04-18 07:45:53 51°14.006 2°55.45 -999 5.108988 33.912854 4.747093
2006-04-18 07:45:58 51°14.006 2°55.45 -999 5.108988 33.912854 4.747093
2006-04-18 07:46:02 51°14.006 2°55.45 -999 5.108884 33.913181 4.747093
2006-04-18 07:46:07 51°14.006 2°55.451 -999 5.108884 33.913181 4.780802
2006-04-18 07:46:13 51°14.006 2°55.45 -999 5.10878 33.912957 4.780802
2006-04-18 07:46:18 51°14.006 2°55.45 -999 5.10878 33.912957 4.780802
2006-04-18 07:46:23 51°14.006 2°55.45 -999 5.10878 33.913507 4.780802
2006-04-18 07:46:27 51°14.005 2°55.45 -999 5.10878 33.913507 4.780802
2006-04-18 07:46:33 51°14.005 2°55.45 -999 5.108677 33.913283 4.780802
2006-04-18 07:46:38 51°14.005 2°55.449 -999 5.108677 33.913834 4.780802
2006-04-18 07:46:43 51°14.005 2°55.449 -999 5.108573 33.91361 4.780802
2006-04-18 07:46:47 51°14.005 2°55.449 -999 5.108573 33.91361 4.780802
2006-04-18 07:46:53 51°14.005 2°55.45 -999 5.108469 33.913385 4.780802
2006-04-18 07:46:58 51°14.005 2°55.45 -999 5.108469 33.913385 4.780802
2006-04-18 07:47:03 51°14.005 2°55.45 -999 5.108469 33.913936 4.780802
2006-04-18 07:47:07 51°14.005 2°55.45 -999 5.108365 33.913161 4.780802
2006-04-18 07:47:12 51°14.005 2°55.45 -999 5.108261 33.912937 4.780802
2006-04-18 07:47:18 51°14.006 2°55.45 -999 5.108261 33.912937 4.780802
2006-04-18 07:47:23 51°14.006 2°55.45 -999 5.108157 33.912713 4.780802
2006-04-18 07:47:28 51°14.006 2°55.45 -999 5.108157 33.912713 4.780802
2006-04-18 07:47:32 51°14.006 2°55.45 -999 5.108157 33.913264 4.780802
2006-04-18 07:47:38 51°14.006 2°55.45 -999 5.108157 33.913264 4.747093
2006-04-18 07:47:43 51°14.005 2°55.45 -999 5.108053 33.91304 4.780802
2006-04-18 07:47:47 51°14.005 2°55.45 -999 5.108053 33.91304 4.780802
2006-04-18 07:47:53 51°14.005 2°55.45 -999 5.107949 33.912815 4.780802
2006-04-18 07:47:57 51°14.005 2°55.45 -999 5.107949 33.912815 4.780802
2006-04-18 07:48:03 51°14.005 2°55.449 -999 5.107845 33.912591 4.780802
2006-04-18 07:48:08 51°14.005 2°55.449 -999 5.107845 33.913142 4.780802
2006-04-18 07:48:12 51°14.005 2°55.449 -999 5.107845 33.913142 4.780802
2006-04-18 07:48:17 51°14.005 2°55.449 -999 5.107741 33.912918 4.780802
2006-04-18 07:48:22 51°14.005 2°55.45 -999 5.107741 33.912918 4.747093
2006-04-18 07:48:28 51°14.005 2°55.45 -999 5.107741 33.912918 4.747093
2006-04-18 07:48:33 51°14.005 2°55.45 -999 5.107638 33.912694 4.780802
2006-04-18 07:48:38 51°14.005 2°55.449 -999 5.107638 33.913245 4.780802
2006-04-18 07:48:43 51°14.005 2°55.45 -999 5.107534 33.91302 4.780802
2006-04-18 07:48:48 51°14.005 2°55.45 -999 5.107534 33.91302 4.780802
2006-04-18 07:48:53 51°14.005 2°55.45 -999 5.10743 33.912796 4.747093
2006-04-18 07:48:58 51°14.006 2°55.451 -999 5.10743 33.912796 4.747093
2006-04-18 07:49:03 51°14.006 2°55.451 -999 5.10743 33.913347 4.780802
2006-04-18 07:49:07 51°14.006 2°55.451 -999 5.107326 33.912572 4.780802
2006-04-18 07:49:13 51°14.006 2°55.45 -999 5.107326 33.913123 4.747093
2006-04-18 07:49:18 51°14.006 2°55.451 -999 5.107222 33.912348 4.747093
2006-04-18 07:49:23 51°14.006 2°55.45 -999 5.107222 33.912899 4.780802
2006-04-18 07:49:27 51°14.006 2°55.451 -999 5.107222 33.912899 4.780802
2006-04-18 07:49:33 51°14.006 2°55.45 -999 5.107222 33.91345 4.780802
2006-04-18 07:49:38 51°14.005 2°55.45 -999 5.107118 33.912675 4.747093
2006-04-18 07:49:43 51°14.005 2°55.45 -999 5.107014 33.912451 4.780802
2006-04-18 07:49:47 51°14.005 2°55.45 -999 5.107014 33.913001 4.780802
2006-04-18 07:49:53 51°14.005 2°55.45 -999 5.107014 33.913001 4.780802
2006-04-18 07:49:57 51°14.005 2°55.45 -999 5.107014 33.913001 4.780802
2006-04-18 07:50:03 51°14.005 2°55.45 -999 5.10691 33.912777 4.780802
2006-04-18 07:50:08 51°14.005 2°55.45 -999 5.10691 33.913328 4.747093
2006-04-18 07:50:13 51°14.005 2°55.45 -999 5.106806 33.912553 4.780802
2006-04-18 07:50:18 51°14.005 2°55.45 -999 5.106806 33.913104 4.780802
2006-04-18 07:50:23 51°14.005 2°55.451 -999 5.106702 33.91288 4.780802
2006-04-18 07:50:27 51°14.006 2°55.451 -999 5.106702 33.91288 4.780802
2006-04-18 07:50:32 51°14.006 2°55.451 -999 5.106702 33.91288 4.780802
2006-04-18 07:50:38 51°14.006 2°55.451 -999 5.106599 33.912656 4.780802
2006-04-18 07:50:43 51°14.006 2°55.451 -999 5.106599 33.912656 4.780802
2006-04-18 07:50:48 51°14.005 2°55.45 -999 5.106495 33.912432 4.780802
2006-04-18 07:50:53 51°14.005 2°55.45 -999 5.106495 33.912983 4.747093
2006-04-18 07:50:58 51°14.005 2°55.45 -999 5.106495 33.912983 4.747093
2006-04-18 07:51:03 51°14.005 2°55.449 -999 5.106391 33.912207 4.780802
2006-04-18 07:51:07 51°14.004 2°55.449 -999 5.106391 33.912758 4.747093
2006-04-18 07:51:13 51°14.004 2°55.449 -999 5.106391 33.913309 4.780802
2006-04-18 07:51:18 51°14.004 2°55.449 -999 5.106287 33.912534 4.780802
2006-04-18 07:51:22 51°14.004 2°55.448 -999 5.106287 33.913085 4.747093
2006-04-18 07:51:27 51°14.004 2°55.448 -999 5.106287 33.913085 4.747093
2006-04-18 07:51:32 51°14.004 2°55.448 -999 5.106183 33.91231 4.780802
2006-04-18 07:51:38 51°14.004 2°55.448 -999 5.106183 33.912861 4.747093
2006-04-18 07:51:42 51°14.004 2°55.448 -999 5.106079 33.912086 4.747093
2006-04-18 07:51:47 51°14.004 2°55.448 -999 5.106079 33.912637 4.780802
2006-04-18 07:51:52 51°14.005 2°55.45 -999 5.105975 33.912413 4.780802
2006-04-18 07:51:57 51°14.006 2°55.451 -999 5.105975 33.912413 4.780802
2006-04-18 07:52:03 51°14.007 2°55.452 -999 5.105975 33.912413 4.780802
2006-04-18 07:52:07 51°14.007 2°55.452 -999 5.105871 33.912189 4.747093
2006-04-18 07:52:12 51°14.007 2°55.452 -999 5.105871 33.912189 4.747093
2006-04-18 07:52:17 51°14.007 2°55.452 -999 5.105871 33.91274 4.780802
2006-04-18 07:52:22 51°14.007 2°55.451 -999 5.105767 33.911965 4.780802
2006-04-18 07:52:27 51°14.007 2°55.451 -999 5.105767 33.911965 4.780802
2006-04-18 07:52:32 51°14.007 2°55.451 -999 5.105663 33.91174 4.780802
2006-04-18 07:52:37 51°14.007 2°55.452 -999 5.105663 33.912292 4.747093
2006-04-18 07:52:43 51°14.007 2°55.452 -999 5.105663 33.912292 4.747093
2006-04-18 07:52:48 51°14.007 2°55.452 -999 5.10556 33.912067 4.747093
2006-04-18 07:52:52 51°14.007 2°55.452 -999 5.10556 33.912067 4.780802
2006-04-18 07:52:57 51°14.007 2°55.452 -999 5.10556 33.912067 4.780802
2006-04-18 07:53:02 51°14.007 2°55.452 -999 5.10556 33.912618 4.747093
2006-04-18 07:53:08 51°14.007 2°55.451 -999 5.105456 33.912394 4.780802
2006-04-18 07:53:12 51°14.006 2°55.451 -999 5.105456 33.912394 4.780802
2006-04-18 07:53:17 51°14.006 2°55.45 -999 5.105352 33.91217 4.780802
2006-04-18 07:53:22 51°14.006 2°55.45 -999 5.105352 33.911619 4.780802
2006-04-18 07:53:27 51°14.006 2°55.45 -999 5.105352 33.911619 4.780802
2006-04-18 07:53:32 51°14.006 2°55.45 -999 5.105352 33.91217 4.747093
2006-04-18 07:53:37 51°14.006 2°55.45 -999 5.105248 33.911946 4.780802
2006-04-18 07:53:42 51°14.006 2°55.449 -999 5.105248 33.912497 4.747093
2006-04-18 07:53:47 51°14.006 2°55.45 -999 5.105144 33.911722 4.780802
2006-04-18 07:53:52 51°14.006 2°55.45 -999 5.105144 33.911722 4.780802
2006-04-18 07:53:58 51°14.006 2°55.45 -999 5.105144 33.911722 4.780802
2006-04-18 07:54:03 51°14.006 2°55.45 -999 5.10504 33.911498 4.747093
2006-04-18 07:54:07 51°14.006 2°55.45 -999 5.10504 33.912049 4.747093
2006-04-18 07:54:12 51°14.006 2°55.449 -999 5.10504 33.912049 4.780802
2006-04-18 07:54:18 51°14.006 2°55.449 -999 5.104936 33.911825 4.780802
2006-04-18 07:54:23 51°14.006 2°55.449 -999 5.104936 33.911825 4.780802
2006-04-18 07:54:27 51°14.006 2°55.449 -999 5.104936 33.911825 4.780802
2006-04-18 07:54:32 51°14.006 2°55.449 -999 5.104936 33.911825 4.780802
2006-04-18 07:54:37 51°14.006 2°55.449 -999 5.104832 33.911049 4.780802
2006-04-18 07:54:42 51°14.006 2°55.449 -999 5.104832 33.911601 4.780802
2006-04-18 07:54:47 51°14.006 2°55.449 -999 5.104728 33.911376 4.780802
2006-04-18 07:54:52 51°14.005 2°55.448 -999 5.104728 33.911376 4.747093
2006-04-18 07:54:57 51°14.005 2°55.448 -999 5.104728 33.911376 4.747093
2006-04-18 07:55:02 51°14.005 2°55.448 -999 5.104624 33.911152 4.747093
2006-04-18 07:55:07 51°14.006 2°55.449 -999 5.104624 33.911703 4.747093
2006-04-18 07:55:12 51°14.006 2°55.449 -999 5.104624 33.911703 4.780802
2006-04-18 07:55:17 51°14.006 2°55.449 -999 5.104521 33.911479 4.780802
2006-04-18 07:55:22 51°14.006 2°55.449 -999 5.104521 33.911479 4.780802
2006-04-18 07:55:27 51°14.006 2°55.449 -999 5.104521 33.911479 4.780802
2006-04-18 07:55:32 51°14.006 2°55.45 -999 5.104417 33.911255 4.747093
2006-04-18 07:55:37 51°14.006 2°55.45 -999 5.104521 33.912031 4.780802
2006-04-18 07:55:42 51°14.006 2°55.449 -999 5.104417 33.911806 4.780802
2006-04-18 07:55:47 51°14.005 2°55.449 -999 5.104313 33.911031 4.780802
2006-04-18 07:55:52 51°14.005 2°55.449 -999 5.104313 33.911582 4.747093
2006-04-18 07:55:57 51°14.006 2°55.449 -999 5.104313 33.911582 4.747093
2006-04-18 07:56:02 51°14.006 2°55.449 -999 5.104313 33.911582 4.780802
2006-04-18 07:56:07 51°14.006 2°55.45 -999 5.104209 33.910807 4.747093
2006-04-18 07:56:12 51°14.006 2°55.45 -999 5.104209 33.911909 4.747093
2006-04-18 07:56:16 51°14.007 2°55.45 -999 5.104105 33.910583 4.747093
2006-04-18 07:56:22 51°14.007 2°55.451 -999 5.104105 33.911134 4.747093
2006-04-18 07:56:27 51°14.007 2°55.45 -999 5.104105 33.911134 4.747093
2006-04-18 07:56:32 51°14.007 2°55.45 -999 5.104105 33.911134 4.780802
2006-04-18 07:56:37 51°14.007 2°55.45 -999 5.104001 33.91091 4.780802
2006-04-18 07:56:42 51°14.006 2°55.45 -999 5.104001 33.911461 4.780802
2006-04-18 07:56:47 51°14.006 2°55.449 -999 5.104001 33.912012 4.780802
2006-04-18 07:56:52 51°14.006 2°55.45 -999 5.103897 33.911237 4.747093
2006-04-18 07:56:57 51°14.006 2°55.45 -999 5.103897 33.911237 4.747093
2006-04-18 07:57:02 51°14.006 2°55.449 -999 5.103897 33.911237 4.747093
2006-04-18 07:57:07 51°14.006 2°55.449 -999 5.103897 33.911788 4.747093
2006-04-18 07:57:12 51°14.006 2°55.449 -999 5.103793 33.911564 4.747093
2006-04-18 07:57:17 51°14.006 2°55.449 -999 5.103793 33.911564 4.747093
2006-04-18 07:57:22 51°14.006 2°55.449 -999 5.103689 33.91134 4.747093
2006-04-18 07:57:27 51°14.006 2°55.449 -999 5.103689 33.91134 4.747093
2006-04-18 07:57:32 51°14.006 2°55.449 -999 5.103689 33.91134 4.747093
2006-04-18 07:57:37 51°14.006 2°55.449 -999 5.103585 33.911116 4.747093
2006-04-18 07:57:42 51°14.006 2°55.45 -999 5.103585 33.911116 4.780802
2006-04-18 07:57:47 51°14.006 2°55.45 -999 5.103585 33.911667 4.780802
2006-04-18 07:57:51 51°14.006 2°55.45 -999 5.103482 33.911443 4.780802
2006-04-18 07:57:57 51°14.006 2°55.449 -999 5.103482 33.911443 4.780802
2006-04-18 07:58:02 51°14.006 2°55.449 -999 5.103482 33.911443 4.747093
2006-04-18 07:58:07 51°14.005 2°55.449 -999 5.103482 33.911994 4.747093
2006-04-18 07:58:12 51°14.006 2°55.449 -999 5.103378 33.911219 4.780802
2006-04-18 07:58:17 51°14.006 2°55.449 -999 5.103378 33.911219 4.747093
2006-04-18 07:58:22 51°14.006 2°55.449 -999 5.103378 33.91177 4.780802
2006-04-18 07:58:27 51°14.006 2°55.45 -999 5.103378 33.91177 4.780802
2006-04-18 07:58:32 51°14.006 2°55.45 -999 5.103274 33.911546 4.780802
2006-04-18 07:58:37 51°14.006 2°55.45 -999 5.103274 33.911546 4.747093
2006-04-18 07:58:42 51°14.006 2°55.449 -999 5.103274 33.912097 4.747093
2006-04-18 07:58:47 51°14.006 2°55.449 -999 5.10317 33.911322 4.747093
2006-04-18 07:58:52 51°14.006 2°55.45 -999 5.10317 33.911873 4.747093
2006-04-18 07:58:57 51°14.006 2°55.45 -999 5.10317 33.911873 4.747093
2006-04-18 07:59:02 51°14.006 2°55.45 -999 5.103066 33.911649 4.747093
2006-04-18 07:59:07 51°14.006 2°55.45 -999 5.103066 33.911649 4.780802
2006-04-18 07:59:12 51°14.006 2°55.45 -999 5.102962 33.911425 4.747093
2006-04-18 07:59:17 51°14.006 2°55.45 -999 5.102962 33.911977 4.747093
2006-04-18 07:59:22 51°14.006 2°55.45 -999 5.102962 33.911977 4.780802
2006-04-18 07:59:27 51°14.006 2°55.45 -999 5.102962 33.911977 4.780802
2006-04-18 07:59:32 51°14.006 2°55.449 -999 5.102962 33.911977 4.747093
2006-04-18 07:59:37 51°14.006 2°55.449 -999 5.102858 33.911752 4.747093